| time (UTC) | temp C | wind direction | speed KPH | gust KPH | rain 1hr cm | rain 24hr cm | rain mn cm | humidity % | barometer mb |
| 20260506003303 | 27 | 228 | 0.0 | 1.6 | 0.00 | 0.00 | 0.00 | 87 | 998.7 |
| 20260506003202 | 27 | 227 | 0.0 | 1.6 | 0.00 | 0.00 | 0.00 | 87 | 998.7 |
| 20260506003103 | 27 | 227 | 0.0 | 1.6 | 0.00 | 0.00 | 0.00 | 87 | 998.8 |
| 20260506003003 | 27 | 224 | 0.0 | 1.6 | 0.00 | 0.00 | 0.00 | 87 | 998.8 |
| 20260506002903 | 27 | 214 | 0.0 | 1.6 | 0.00 | 0.00 | 0.00 | 87 | 998.8 |
| 20260506002802 | 27 | 207 | 0.0 | 1.6 | 0.00 | 0.00 | 0.00 | 87 | 998.8 |
| 20260506002702 | 27 | 207 | 0.0 | 3.2 | 0.00 | 0.00 | 0.00 | 87 | 998.7 |
| 20260506002602 | 27 | 207 | 0.0 | 3.2 | 0.00 | 0.00 | 0.00 | 87 | 998.7 |
| 20260506002503 | 27 | 203 | 0.0 | 3.2 | 0.00 | 0.00 | 0.00 | 87 | 998.8 |
| 20260506002403 | 27 | 268 | 0.0 | 3.2 | 0.00 | 0.00 | 0.00 | 87 | 998.7 |
| 20260506002305 | 27 | 268 | 0.0 | 3.2 | 0.00 | 0.00 | 0.00 | 87 | 998.7 |
| 20260506002203 | 27 | 268 | 0.0 | 3.2 | 0.00 | 0.00 | 0.00 | 87 | 998.8 |
| 20260506002102 | 27 | 268 | 0.0 | 3.2 | 0.00 | 0.00 | 0.00 | 87 | 998.8 |
| 20260506002004 | 27 | 268 | 0.0 | 3.2 | 0.00 | 0.00 | 0.00 | 87 | 998.8 |
| 20260506001903 | 27 | 268 | 0.0 | 3.2 | 0.00 | 0.00 | 0.00 | 87 | 998.8 |
| 20260506001803 | 27 | 268 | 0.0 | 3.2 | 0.00 | 0.00 | 0.00 | 87 | 998.7 |
| 20260506001701 | 27 | 247 | 0.0 | 3.2 | 0.00 | 0.00 | 0.00 | 87 | 998.8 |
| 20260506001609 | 27 | 250 | 0.0 | 3.2 | 0.00 | 0.00 | 0.00 | 87 | 998.7 |
| 20260506001504 | 27 | 250 | 0.0 | 3.2 | 0.00 | 0.00 | 0.00 | 87 | 998.8 |
| 20260506001403 | 27 | 176 | 0.0 | 3.2 | 0.00 | 0.00 | 0.00 | 87 | 998.7 |
| 20260506001304 | 27 | 176 | 0.0 | 3.2 | 0.00 | 0.00 | 0.00 | 87 | 998.7 |
| 20260506001202 | 27 | 243 | 0.0 | 3.2 | 0.00 | 0.00 | 0.00 | 87 | 998.7 |
| 20260506001105 | 27 | 230 | 0.0 | 3.2 | 0.00 | 0.00 | 0.00 | 87 | 998.7 |
| 20260506001004 | 27 | 213 | 0.0 | 3.2 | 0.00 | 0.00 | 0.00 | 87 | 998.7 |
| 20260506000904 | 27 | 212 | 0.0 | 3.2 | 0.00 | 0.00 | 0.00 | 87 | 998.8 |
| 20260506000803 | 27 | 272 | 0.0 | 3.2 | 0.00 | 0.00 | 0.00 | 87 | 998.8 |
| 20260506000703 | 27 | 207 | 0.0 | 3.2 | 0.00 | 0.00 | 0.00 | 87 | 998.8 |
| 20260506000607 | 27 | 176 | 0.0 | 1.6 | 0.00 | 0.00 | 0.00 | 87 | 998.9 |
| 20260506000501 | 27 | 190 | 0.0 | 1.6 | 0.00 | 0.00 | 0.00 | 87 | 998.8 |
| 20260506000403 | 27 | 179 | 0.0 | 1.6 | 0.00 | 0.00 | 0.00 | 87 | 998.9 |
| 20260506000302 | 27 | 272 | 0.0 | 1.6 | 0.00 | 0.00 | 0.00 | 86 | 998.8 |
| 20260506000205 | 27 | 272 | 0.0 | 1.6 | 0.00 | 0.00 | 0.00 | 86 | 998.9 |
| 20260506000003 | 27 | 204 | 0.0 | 6.4 | 0.00 | 0.00 | 0.00 | 86 | 998.8 |
| 20260505235902 | 27 | 203 | 0.0 | 6.4 | 0.00 | 0.00 | 0.00 | 86 | 998.8 |
| 20260505235802 | 27 | 83 | 0.0 | 6.4 | 0.00 | 0.00 | 0.00 | 86 | 998.8 |
| 20260505235703 | 27 | 83 | 0.0 | 6.4 | 0.00 | 0.00 | 0.00 | 86 | 998.9 |
| 20260505235604 | 27 | 78 | 0.0 | 6.4 | 0.00 | 0.00 | 0.00 | 86 | 998.8 |
| 20260505235504 | 27 | 118 | 0.0 | 6.4 | 0.00 | 0.00 | 0.00 | 86 | 998.6 |
| 20260505235404 | 27 | 85 | 0.0 | 6.4 | 0.00 | 0.00 | 0.00 | 86 | 998.7 |
| 20260505235305 | 27 | 134 | 1.6 | 6.4 | 0.00 | 0.00 | 0.00 | 86 | 998.6 |
| 20260505235204 | 27 | 161 | 1.6 | 6.4 | 0.00 | 0.00 | 0.00 | 86 | 998.6 |
| 20260505235104 | 27 | 233 | 0.0 | 3.2 | 0.00 | 0.00 | 0.00 | 86 | 998.6 |
| 20260505235003 | 27 | 168 | 0.0 | 3.2 | 0.00 | 0.00 | 0.00 | 86 | 998.6 |
| 20260505234902 | 27 | 168 | 0.0 | 3.2 | 0.00 | 0.00 | 0.00 | 86 | 998.5 |
| 20260505234802 | 27 | 138 | 0.0 | 1.6 | 0.00 | 0.00 | 0.00 | 86 | 998.5 |
| 20260505234702 | 27 | 166 | 0.0 | 1.6 | 0.00 | 0.00 | 0.00 | 86 | 998.6 |
| 20260505234603 | 27 | 166 | 0.0 | 1.6 | 0.00 | 0.00 | 0.00 | 86 | 998.5 |
| 20260505234503 | 27 | 166 | 0.0 | 1.6 | 0.00 | 0.00 | 0.00 | 86 | 998.6 |
| 20260505234403 | 27 | 166 | 0.0 | 1.6 | 0.00 | 0.00 | 0.00 | 86 | 998.6 |
| 20260505234303 | 27 | 166 | 0.0 | 1.6 | 0.00 | 0.00 | 0.00 | 86 | 998.7 |
| 20260505234209 | 27 | 166 | 0.0 | 1.6 | 0.00 | 0.00 | 0.00 | 86 | 998.7 |
| 20260505234059 | 27 | 166 | 0.0 | 1.6 | 0.00 | 0.00 | 0.00 | 86 | 998.7 |
| 20260505233957 | 27 | 195 | 0.0 | 1.6 | 0.00 | 0.00 | 0.00 | 86 | 998.7 |
| 20260505233853 | 27 | 195 | 0.0 | 1.6 | 0.00 | 0.00 | 0.00 | 86 | 998.7 |
| 20260505233749 | 27 | 195 | 0.0 | 3.2 | 0.00 | 0.00 | 0.00 | 86 | 998.6 |
| 20260505233639 | 27 | 192 | 0.0 | 6.4 | 0.00 | 0.00 | 0.00 | 86 | 998.6 |
| 20260505233540 | 27 | 193 | 0.0 | 6.4 | 0.00 | 0.00 | 0.00 | 86 | 998.7 |
| 20260505233438 | 27 | 193 | 0.0 | 6.4 | 0.00 | 0.00 | 0.00 | 85 | 998.6 |
| 20260505233339 | 27 | 193 | 0.0 | 6.4 | 0.00 | 0.00 | 0.00 | 85 | 998.6 |
| 20260505233237 | 27 | 193 | 0.0 | 6.4 | 0.00 | 0.00 | 0.00 | 85 | 998.7 |
| 20260505233138 | 27 | 193 | 0.0 | 6.4 | 0.00 | 0.00 | 0.00 | 86 | 998.7 |
| 20260505233038 | 27 | 223 | 0.0 | 6.4 | 0.00 | 0.00 | 0.00 | 86 | 998.7 |
| 20260505232938 | 27 | 140 | 0.0 | 6.4 | 0.00 | 0.00 | 0.00 | 86 | 998.7 |
| 20260505232837 | 27 | 141 | 1.6 | 6.4 | 0.00 | 0.00 | 0.00 | 86 | 998.6 |
| 20260505232738 | 27 | 39 | 1.6 | 6.4 | 0.00 | 0.00 | 0.00 | 86 | 998.5 |
| 20260505232653 | 27 | 355 | 0.0 | 1.6 | 0.00 | 0.00 | 0.00 | 86 | 998.6 |
| 20260505232538 | 27 | 199 | 0.0 | 1.6 | 0.00 | 0.00 | 0.00 | 86 | 998.5 |
| 20260505232437 | 27 | 199 | 0.0 | 1.6 | 0.00 | 0.00 | 0.00 | 86 | 998.5 |
| 20260505232339 | 27 | 199 | 0.0 | 3.2 | 0.00 | 0.00 | 0.00 | 86 | 998.5 |
| 20260505232238 | 27 | 199 | 0.0 | 6.4 | 0.00 | 0.00 | 0.00 | 86 | 998.5 |
| 20260505232140 | 27 | 199 | 0.0 | 6.4 | 0.00 | 0.00 | 0.00 | 86 | 998.4 |
| 20260505232037 | 27 | 210 | 0.0 | 6.4 | 0.00 | 0.00 | 0.00 | 86 | 998.5 |
| 20260505231937 | 28 | 209 | 0.0 | 6.4 | 0.00 | 0.00 | 0.00 | 86 | 998.4 |
| 20260505231840 | 28 | 182 | 0.0 | 6.4 | 0.00 | 0.00 | 0.00 | 85 | 998.5 |
| 20260505231740 | 28 | 186 | 0.0 | 6.4 | 0.00 | 0.00 | 0.00 | 85 | 998.4 |
| 20260505231642 | 28 | 186 | 0.0 | 6.4 | 0.00 | 0.00 | 0.00 | 85 | 998.4 |
| 20260505231539 | 28 | 186 | 1.6 | 6.4 | 0.00 | 0.00 | 0.00 | 85 | 998.4 |
| 20260505231439 | 28 | 274 | 1.6 | 6.4 | 0.00 | 0.00 | 0.00 | 85 | 998.4 |
| 20260505231337 | 28 | 238 | 1.6 | 6.4 | 0.00 | 0.00 | 0.00 | 85 | 998.4 |
| 20260505231238 | 28 | 230 | 0.0 | 4.8 | 0.00 | 0.00 | 0.00 | 85 | 998.5 |
| 20260505231138 | 28 | 234 | 0.0 | 4.8 | 0.00 | 0.00 | 0.00 | 85 | 998.4 |
| 20260505231038 | 28 | 271 | 0.0 | 4.8 | 0.00 | 0.00 | 0.00 | 85 | 998.4 |
| 20260505230937 | 28 | 305 | 0.0 | 4.8 | 0.00 | 0.00 | 0.00 | 85 | 998.4 |
| 20260505230838 | 28 | 309 | 1.6 | 4.8 | 0.00 | 0.00 | 0.00 | 85 | 998.4 |
| 20260505230739 | 28 | 131 | 1.6 | 4.8 | 0.00 | 0.00 | 0.00 | 85 | 998.4 |
| 20260505230637 | 28 | 197 | 1.6 | 4.8 | 0.00 | 0.00 | 0.00 | 85 | 998.4 |
| 20260505230538 | 28 | 86 | 0.0 | 4.8 | 0.00 | 0.00 | 0.00 | 85 | 998.5 |
| 20260505230436 | 28 | 78 | 0.0 | 4.8 | 0.00 | 0.00 | 0.00 | 85 | 998.4 |
| 20260505230338 | 28 | 73 | 0.0 | 4.8 | 0.00 | 0.00 | 0.00 | 85 | 998.5 |
| 20260505230239 | 28 | 141 | 0.0 | 4.8 | 0.00 | 0.00 | 0.00 | 85 | 998.5 |
| 20260505230139 | 28 | 66 | 0.0 | 4.8 | 0.00 | 0.00 | 0.00 | 85 | 998.4 |
| 20260505230040 | 28 | 207 | 0.0 | 4.8 | 0.00 | 0.00 | 0.00 | 85 | 998.6 |
| 20260505225938 | 28 | 210 | 0.0 | 4.8 | 0.00 | 0.00 | 0.00 | 85 | 998.5 |
| 20260505225838 | 28 | 210 | 0.0 | 4.8 | 0.00 | 0.00 | 0.00 | 85 | 998.6 |
| 20260505225737 | 28 | 210 | 0.0 | 4.8 | 0.00 | 0.00 | 0.00 | 85 | 998.5 |
| 20260505225638 | 28 | 210 | 0.0 | 4.8 | 0.00 | 0.00 | 0.00 | 85 | 998.5 |
| 20260505225539 | 28 | 148 | 0.0 | 6.4 | 0.00 | 0.00 | 0.00 | 85 | 998.6 |
| 20260505225438 | 28 | 148 | 0.0 | 6.4 | 0.00 | 0.00 | 0.00 | 85 | 998.6 |
| 20260505225338 | 28 | 148 | 0.0 | 6.4 | 0.00 | 0.00 | 0.00 | 85 | 998.5 |
| 20260505225238 | 28 | 237 | 0.0 | 6.4 | 0.00 | 0.00 | 0.00 | 85 | 998.6 |
| 20260505225138 | 28 | 237 | 0.0 | 6.4 | 0.00 | 0.00 | 0.00 | 85 | 998.7 |
| 20260505225042 | 28 | 157 | 0.0 | 6.4 | 0.00 | 0.00 | 0.00 | 85 | 998.7 |
| 20260505224937 | 28 | 157 | 0.0 | 6.4 | 0.00 | 0.00 | 0.00 | 85 | 998.8 |
| 20260505224838 | 28 | 155 | 0.0 | 6.4 | 0.00 | 0.00 | 0.00 | 85 | 998.7 |
| 20260505224738 | 28 | 155 | 1.6 | 6.4 | 0.00 | 0.00 | 0.00 | 85 | 998.7 |
| 20260505224637 | 28 | 190 | 1.6 | 6.4 | 0.00 | 0.00 | 0.00 | 85 | 998.7 |
| 20260505224543 | 28 | 343 | 0.0 | 4.8 | 0.00 | 0.00 | 0.00 | 85 | 998.6 |
| 20260505224438 | 28 | 175 | 0.0 | 4.8 | 0.00 | 0.00 | 0.00 | 85 | 998.6 |
| 20260505224338 | 28 | 175 | 0.0 | 4.8 | 0.00 | 0.00 | 0.00 | 85 | 998.6 |
| 20260505224238 | 28 | 172 | 0.0 | 4.8 | 0.00 | 0.00 | 0.00 | 85 | 998.6 |
| 20260505224138 | 28 | 192 | 0.0 | 3.2 | 0.00 | 0.00 | 0.00 | 85 | 998.6 |
| 20260505224037 | 28 | 195 | 0.0 | 3.2 | 0.00 | 0.00 | 0.00 | 85 | 998.5 |
| 20260505223939 | 28 | 245 | 0.0 | 3.2 | 0.00 | 0.00 | 0.00 | 85 | 998.5 |
| 20260505223838 | 28 | 245 | 0.0 | 3.2 | 0.00 | 0.00 | 0.00 | 85 | 998.6 |
| 20260505223737 | 28 | 206 | 1.6 | 3.2 | 0.00 | 0.00 | 0.00 | 85 | 998.5 |
| 20260505223637 | 28 | 327 | 0.0 | 3.2 | 0.00 | 0.00 | 0.00 | 85 | 998.5 |
| 20260505223537 | 28 | 238 | 0.0 | 3.2 | 0.00 | 0.00 | 0.00 | 84 | 998.6 |
| 20260505223436 | 28 | 248 | 0.0 | 3.2 | 0.00 | 0.00 | 0.00 | 84 | 998.6 |
| 20260505223337 | 28 | 248 | 0.0 | 3.2 | 0.00 | 0.00 | 0.00 | 84 | 998.6 |
| 20260505223237 | 28 | 237 | 0.0 | 3.2 | 0.00 | 0.00 | 0.00 | 84 | 998.6 |
| 20260505223138 | 28 | 237 | 0.0 | 3.2 | 0.00 | 0.00 | 0.00 | 84 | 998.5 |
| 20260505223039 | 28 | 264 | 0.0 | 4.8 | 0.00 | 0.00 | 0.00 | 84 | 998.5 |
| 20260505222932 | 28 | 264 | 0.0 | 4.8 | 0.00 | 0.00 | 0.00 | 84 | 998.6 |
| 20260505222831 | 28 | 292 | 0.0 | 4.8 | 0.00 | 0.00 | 0.00 | 84 | 998.5 |
| 20260505222733 | 28 | 292 | 0.0 | 4.8 | 0.00 | 0.00 | 0.00 | 84 | 998.6 |
| 20260505222633 | 28 | 217 | 0.0 | 4.8 | 0.00 | 0.00 | 0.00 | 84 | 998.6 |
| 20260505222527 | 28 | 179 | 0.0 | 6.4 | 0.00 | 0.00 | 0.00 | 84 | 998.4 |
| 20260505222427 | 28 | 252 | 0.0 | 6.4 | 0.00 | 0.00 | 0.00 | 84 | 998.5 |
| 20260505222318 | 28 | 113 | 1.6 | 6.4 | 0.00 | 0.00 | 0.00 | 84 | 998.5 |
| 20260505222218 | 28 | 189 | 1.6 | 6.4 | 0.00 | 0.00 | 0.00 | 84 | 998.6 |
| 20260505222105 | 28 | 133 | 0.0 | 6.4 | 0.00 | 0.00 | 0.00 | 84 | 998.7 |
| 20260505222005 | 28 | 351 | 0.0 | 6.4 | 0.00 | 0.00 | 0.00 | 84 | 998.6 |
| 20260505221903 | 28 | 223 | 0.0 | 6.4 | 0.00 | 0.00 | 0.00 | 84 | 998.6 |
| 20260505221802 | 28 | 186 | 0.0 | 6.4 | 0.00 | 0.00 | 0.00 | 84 | 998.7 |
| 20260505221702 | 28 | 185 | 0.0 | 6.4 | 0.00 | 0.00 | 0.00 | 84 | 998.6 |
| 20260505221604 | 28 | 276 | 0.0 | 1.6 | 0.00 | 0.00 | 0.00 | 84 | 998.7 |
| 20260505221501 | 28 | 286 | 0.0 | 1.6 | 0.00 | 0.00 | 0.00 | 84 | 998.7 |
| 20260505221358 | 28 | 245 | 0.0 | 1.6 | 0.00 | 0.00 | 0.00 | 84 | 998.7 |
| 20260505221253 | 28 | 221 | 0.0 | 1.6 | 0.00 | 0.00 | 0.00 | 85 | 998.7 |
| 20260505221158 | 28 | 223 | 0.0 | 1.6 | 0.00 | 0.00 | 0.00 | 85 | 998.7 |
| 20260505221044 | 28 | 233 | 0.0 | 1.6 | 0.00 | 0.00 | 0.00 | 84 | 998.8 |
| 20260505220942 | 28 | 233 | 0.0 | 1.6 | 0.00 | 0.00 | 0.00 | 84 | 998.7 |
| 20260505220840 | 28 | 224 | 0.0 | 3.2 | 0.00 | 0.00 | 0.00 | 84 | 998.7 |
| 20260505220738 | 28 | 217 | 0.0 | 3.2 | 0.00 | 0.00 | 0.00 | 84 | 998.6 |
| 20260505220640 | 28 | 220 | 0.0 | 3.2 | 0.00 | 0.00 | 0.00 | 84 | 998.7 |
| 20260505220537 | 28 | 237 | 0.0 | 3.2 | 0.00 | 0.00 | 0.00 | 84 | 998.7 |
| 20260505220436 | 28 | 237 | 0.0 | 3.2 | 0.00 | 0.00 | 0.00 | 84 | 998.7 |
| 20260505220338 | 28 | 235 | 0.0 | 3.2 | 0.00 | 0.00 | 0.00 | 84 | 998.7 |
| 20260505220237 | 28 | 235 | 0.0 | 3.2 | 0.00 | 0.00 | 0.00 | 84 | 998.7 |
| 20260505220136 | 28 | 237 | 0.0 | 3.2 | 0.00 | 0.00 | 0.00 | 84 | 998.6 |
| 20260505220036 | 28 | 235 | 0.0 | 3.2 | 0.00 | 0.00 | 0.00 | 84 | 998.7 |
| 20260505215935 | 28 | 224 | 0.0 | 8.0 | 0.00 | 0.00 | 0.00 | 84 | 998.8 |
| 20260505215837 | 28 | 190 | 1.6 | 8.0 | 0.00 | 0.00 | 0.00 | 84 | 998.8 |
| 20260505215736 | 28 | 188 | 1.6 | 8.0 | 0.00 | 0.00 | 0.00 | 84 | 998.8 |
| 20260505215637 | 28 | 209 | 0.0 | 8.0 | 0.00 | 0.00 | 0.00 | 84 | 998.8 |
| 20260505215535 | 28 | 188 | 0.0 | 8.0 | 0.00 | 0.00 | 0.00 | 84 | 998.7 |
| 20260505215436 | 28 | 285 | 1.6 | 8.0 | 0.00 | 0.00 | 0.00 | 85 | 998.8 |
| 20260505215336 | 28 | 240 | 1.6 | 8.0 | 0.00 | 0.00 | 0.00 | 85 | 998.8 |
| 20260505215233 | 28 | 151 | 1.6 | 8.0 | 0.00 | 0.00 | 0.00 | 85 | 998.8 |
| 20260505215133 | 28 | 203 | 1.6 | 8.0 | 0.00 | 0.00 | 0.00 | 85 | 998.8 |
| 20260505215023 | 28 | 135 | 1.6 | 8.0 | 0.00 | 0.00 | 0.00 | 85 | 998.8 |
| 20260505214916 | 28 | 97 | 1.6 | 4.8 | 0.00 | 0.00 | 0.00 | 85 | 998.8 |
| 20260505214805 | 28 | 166 | 0.0 | 4.8 | 0.00 | 0.00 | 0.00 | 85 | 998.9 |
| 20260505214703 | 28 | 214 | 0.0 | 1.6 | 0.00 | 0.00 | 0.00 | 85 | 998.9 |
| 20260505214615 | 28 | 214 | 0.0 | 6.4 | 0.00 | 0.00 | 0.00 | 85 | 998.9 |
| 20260505214505 | 28 | 214 | 0.0 | 6.4 | 0.00 | 0.00 | 0.00 | 85 | 998.9 |
| 20260505214403 | 28 | 216 | 0.0 | 6.4 | 0.00 | 0.00 | 0.00 | 85 | 999.0 |
| 20260505214302 | 28 | 216 | 0.0 | 6.4 | 0.00 | 0.00 | 0.00 | 85 | 998.9 |
| 20260505214203 | 28 | 216 | 0.0 | 6.4 | 0.00 | 0.00 | 0.00 | 85 | 999.0 |
| 20260505214108 | 28 | 216 | 0.0 | 6.4 | 0.00 | 0.00 | 0.00 | 84 | 998.9 |
| 20260505214003 | 28 | 227 | 0.0 | 6.4 | 0.00 | 0.00 | 0.00 | 84 | 999.0 |
| 20260505213903 | 28 | 230 | 0.0 | 6.4 | 0.00 | 0.00 | 0.00 | 84 | 999.0 |
| 20260505213803 | 28 | 183 | 1.6 | 6.4 | 0.00 | 0.00 | 0.00 | 84 | 999.1 |
| 20260505213703 | 28 | 183 | 1.6 | 6.4 | 0.00 | 0.00 | 0.00 | 84 | 999.1 |
| 20260505213603 | 28 | 330 | 0.0 | 6.4 | 0.00 | 0.00 | 0.00 | 84 | 999.0 |
| 20260505213502 | 28 | 330 | 0.0 | 6.4 | 0.00 | 0.00 | 0.00 | 84 | 999.1 |
| 20260505213403 | 28 | 329 | 0.0 | 6.4 | 0.00 | 0.00 | 0.00 | 84 | 999.1 |
| 20260505213304 | 28 | 329 | 0.0 | 6.4 | 0.00 | 0.00 | 0.00 | 84 | 999.2 |
| 20260505213204 | 28 | 329 | 1.6 | 6.4 | 0.00 | 0.00 | 0.00 | 83 | 999.2 |
| 20260505213102 | 28 | 330 | 1.6 | 6.4 | 0.00 | 0.00 | 0.00 | 83 | 999.2 |
| 20260505213004 | 28 | 250 | 0.0 | 4.8 | 0.00 | 0.00 | 0.00 | 83 | 999.1 |
| 20260505212904 | 28 | 262 | 0.0 | 4.8 | 0.00 | 0.00 | 0.00 | 83 | 999.2 |
| 20260505212802 | 28 | 264 | 0.0 | 4.8 | 0.00 | 0.00 | 0.00 | 83 | 999.2 |
| 20260505212703 | 28 | 250 | 0.0 | 4.8 | 0.00 | 0.00 | 0.00 | 83 | 999.2 |
| 20260505212604 | 28 | 261 | 0.0 | 4.8 | 0.00 | 0.00 | 0.00 | 84 | 999.2 |
| 20260505212436 | 28 | 285 | 1.6 | 4.8 | 0.00 | 0.00 | 0.00 | 84 | 999.3 |
| 20260505212334 | 28 | 228 | 1.6 | 4.8 | 0.00 | 0.00 | 0.00 | 84 | 999.3 |
| 20260505212234 | 28 | 203 | 0.0 | 4.8 | 0.00 | 0.00 | 0.00 | 84 | 999.3 |
| 20260505212136 | 28 | 204 | 0.0 | 4.8 | 0.00 | 0.00 | 0.00 | 84 | 999.3 |
| 20260505212036 | 28 | 209 | 1.6 | 4.8 | 0.00 | 0.00 | 0.00 | 84 | 999.3 |
| 20260505211936 | 28 | 207 | 1.6 | 4.8 | 0.00 | 0.00 | 0.00 | 84 | 999.3 |
| 20260505211835 | 28 | 134 | 0.0 | 4.8 | 0.00 | 0.00 | 0.00 | 84 | 999.3 |
| 20260505211738 | 28 | 116 | 0.0 | 4.8 | 0.00 | 0.00 | 0.00 | 84 | 999.3 |
| 20260505211636 | 28 | 295 | 0.0 | 4.8 | 0.00 | 0.00 | 0.00 | 84 | 999.4 |
| 20260505211536 | 28 | 309 | 0.0 | 4.8 | 0.00 | 0.00 | 0.00 | 84 | 999.4 |
| 20260505211434 | 28 | 266 | 0.0 | 4.8 | 0.00 | 0.00 | 0.00 | 84 | 999.3 |
| 20260505211336 | 28 | 268 | 0.0 | 4.8 | 0.00 | 0.00 | 0.00 | 84 | 999.5 |
| 20260505211234 | 28 | 268 | 0.0 | 4.8 | 0.00 | 0.00 | 0.00 | 84 | 999.4 |
| 20260505211136 | 28 | 268 | 0.0 | 4.8 | 0.00 | 0.00 | 0.00 | 84 | 999.5 |
| 20260505211035 | 28 | 298 | 1.6 | 4.8 | 0.00 | 0.00 | 0.00 | 84 | 999.5 |
| 20260505210937 | 28 | 271 | 0.0 | 4.8 | 0.00 | 0.00 | 0.00 | 84 | 999.4 |
| 20260505210834 | 28 | 193 | 0.0 | 3.2 | 0.00 | 0.00 | 0.00 | 84 | 999.5 |
| 20260505210734 | 28 | 190 | 0.0 | 3.2 | 0.00 | 0.00 | 0.00 | 84 | 999.4 |
| 20260505210636 | 28 | 0 | 0.0 | 3.2 | 0.00 | 0.00 | 0.00 | 84 | 999.5 |
| 20260505210535 | 28 | 0 | 0.0 | 3.2 | 0.00 | 0.00 | 0.00 | 84 | 999.4 |
| 20260505210435 | 28 | 190 | 0.0 | 3.2 | 0.00 | 0.00 | 0.00 | 83 | 999.5 |
| 20260505210336 | 28 | 185 | 0.0 | 3.2 | 0.00 | 0.00 | 0.00 | 83 | 999.5 |
| 20260505210234 | 28 | 185 | 0.0 | 4.8 | 0.00 | 0.00 | 0.00 | 83 | 999.5 |
| 20260505210136 | 28 | 195 | 0.0 | 6.4 | 0.00 | 0.00 | 0.00 | 83 | 999.5 |
| 20260505210035 | 28 | 348 | 0.0 | 6.4 | 0.00 | 0.00 | 0.00 | 84 | 999.5 |
| 20260505205934 | 28 | 173 | 0.0 | 6.4 | 0.00 | 0.00 | 0.00 | 84 | 999.5 |
| 20260505205834 | 28 | 172 | 0.0 | 6.4 | 0.00 | 0.00 | 0.00 | 84 | 999.4 |
| 20260505205736 | 28 | 248 | 0.0 | 6.4 | 0.00 | 0.00 | 0.00 | 84 | 999.5 |
| 20260505205635 | 28 | 243 | 0.0 | 6.4 | 0.00 | 0.00 | 0.00 | 84 | 999.5 |
| 20260505205535 | 28 | 244 | 0.0 | 6.4 | 0.00 | 0.00 | 0.00 | 84 | 999.4 |
| 20260505205434 | 28 | 127 | 1.6 | 6.4 | 0.00 | 0.00 | 0.00 | 84 | 999.6 |
| 20260505205333 | 28 | 206 | 1.6 | 6.4 | 0.00 | 0.00 | 0.00 | 84 | 999.5 |
| 20260505205234 | 28 | 180 | 1.6 | 6.4 | 0.00 | 0.00 | 0.00 | 84 | 999.5 |
| 20260505205134 | 28 | 300 | 0.0 | 6.4 | 0.00 | 0.00 | 0.00 | 84 | 999.5 |
| 20260505205036 | 28 | 314 | 0.0 | 6.4 | 0.00 | 0.00 | 0.00 | 84 | 999.6 |
| 20260505204934 | 28 | 220 | 0.0 | 6.4 | 0.00 | 0.00 | 0.00 | 84 | 999.5 |
| 20260505204833 | 28 | 133 | 0.0 | 6.4 | 0.00 | 0.00 | 0.00 | 84 | 999.6 |
| 20260505204736 | 28 | 124 | 1.6 | 6.4 | 0.00 | 0.00 | 0.00 | 84 | 999.6 |
| 20260505204646 | 28 | 207 | 1.6 | 6.4 | 0.00 | 0.00 | 0.00 | 84 | 999.6 |
| 20260505204533 | 28 | 269 | 0.0 | 6.4 | 0.00 | 0.00 | 0.00 | 84 | 999.6 |
| 20260505204434 | 28 | 276 | 0.0 | 6.4 | 0.00 | 0.00 | 0.00 | 84 | 999.6 |
| 20260505204334 | 28 | 288 | 0.0 | 6.4 | 0.00 | 0.00 | 0.00 | 84 | 999.6 |
| 20260505204234 | 28 | 0 | 0.0 | 6.4 | 0.00 | 0.00 | 0.00 | 84 | 999.6 |
| 20260505204140 | 28 | 127 | 0.0 | 6.4 | 0.00 | 0.00 | 0.00 | 84 | 999.6 |
| 20260505204034 | 28 | 56 | 0.0 | 6.4 | 0.00 | 0.00 | 0.00 | 84 | 999.5 |
| 20260505203934 | 28 | 21 | 1.6 | 6.4 | 0.00 | 0.00 | 0.00 | 84 | 999.6 |
| 20260505203835 | 28 | 185 | 0.0 | 6.4 | 0.00 | 0.00 | 0.00 | 84 | 999.7 |
| 20260505203733 | 28 | 329 | 0.0 | 1.6 | 0.00 | 0.00 | 0.00 | 84 | 999.7 |
| 20260505203635 | 28 | 144 | 0.0 | 1.6 | 0.00 | 0.00 | 0.00 | 84 | 999.7 |
| 20260505203534 | 28 | 104 | 0.0 | 1.6 | 0.00 | 0.00 | 0.00 | 84 | 999.7 |
| 20260505203435 | 28 | 275 | 0.0 | 1.6 | 0.00 | 0.00 | 0.00 | 85 | 999.7 |
| 20260505203335 | 28 | 231 | 0.0 | 1.6 | 0.00 | 0.00 | 0.00 | 84 | 999.8 |
| 20260505203234 | 28 | 175 | 0.0 | 1.6 | 0.00 | 0.00 | 0.00 | 84 | 999.7 |
| 20260505203134 | 28 | 278 | 0.0 | 1.6 | 0.00 | 0.00 | 0.00 | 84 | 999.8 |
| 20260505203034 | 28 | 237 | 0.0 | 1.6 | 0.00 | 0.00 | 0.00 | 84 | 999.8 |
| 20260505202935 | 28 | 227 | 0.0 | 1.6 | 0.00 | 0.00 | 0.00 | 84 | 999.9 |
| 20260505202833 | 28 | 197 | 0.0 | 1.6 | 0.00 | 0.00 | 0.00 | 84 | 999.8 |
| 20260505202735 | 28 | 261 | 0.0 | 0.0 | 0.00 | 0.00 | 0.00 | 84 | 999.9 |
| 20260505202634 | 28 | 272 | 0.0 | 0.0 | 0.00 | 0.00 | 0.00 | 84 | 999.9 |
| 20260505202534 | 28 | 224 | 0.0 | 1.6 | 0.00 | 0.00 | 0.00 | 85 | 999.9 |
| 20260505202433 | 28 | 317 | 0.0 | 1.6 | 0.00 | 0.00 | 0.00 | 85 | 999.9 |
| 20260505202334 | 28 | 307 | 0.0 | 1.6 | 0.00 | 0.00 | 0.00 | 85 | 999.9 |
| 20260505202233 | 28 | 283 | 0.0 | 4.8 | 0.00 | 0.00 | 0.00 | 85 | 999.9 |
| 20260505202133 | 28 | 268 | 0.0 | 4.8 | 0.00 | 0.00 | 0.00 | 85 | 1000.0 |
| 20260505202035 | 28 | 149 | 0.0 | 4.8 | 0.00 | 0.00 | 0.00 | 85 | 1000.0 |
| 20260505201934 | 28 | 251 | 0.0 | 4.8 | 0.00 | 0.00 | 0.00 | 85 | 1000.0 |
| 20260505201833 | 28 | 340 | 0.0 | 4.8 | 0.00 | 0.00 | 0.00 | 85 | 1000.0 |
| 20260505201733 | 28 | 0 | 0.0 | 4.8 | 0.00 | 0.00 | 0.00 | 85 | 1000.0 |
| 20260505201633 | 28 | 169 | 0.0 | 4.8 | 0.00 | 0.00 | 0.00 | 85 | 999.9 |
| 20260505201531 | 28 | 165 | 0.0 | 4.8 | 0.00 | 0.00 | 0.00 | 85 | 1000.0 |
| 20260505201433 | 28 | 176 | 0.0 | 4.8 | 0.00 | 0.00 | 0.00 | 86 | 1000.1 |
| 20260505201332 | 28 | 176 | 0.0 | 4.8 | 0.00 | 0.00 | 0.00 | 86 | 1000.0 |
| 20260505201232 | 28 | 220 | 0.0 | 4.8 | 0.00 | 0.00 | 0.00 | 86 | 1000.0 |
| 20260505201133 | 28 | 161 | 0.0 | 4.8 | 0.00 | 0.00 | 0.00 | 86 | 1000.1 |
| 20260505201033 | 28 | 147 | 0.0 | 4.8 | 0.00 | 0.00 | 0.00 | 86 | 1000.1 |
| 20260505200931 | 28 | 131 | 0.0 | 4.8 | 0.00 | 0.00 | 0.00 | 86 | 1000.0 |
| 20260505200832 | 28 | 94 | 0.0 | 4.8 | 0.00 | 0.00 | 0.00 | 86 | 1000.0 |
| 20260505200728 | 28 | 235 | 0.0 | 4.8 | 0.00 | 0.00 | 0.00 | 86 | 1000.1 |
| 20260505200626 | 28 | 235 | 0.0 | 4.8 | 0.00 | 0.00 | 0.00 | 86 | 1000.2 |
| 20260505200521 | 28 | 276 | 0.0 | 4.8 | 0.00 | 0.00 | 0.00 | 86 | 1000.2 |
| 20260505200420 | 28 | 244 | 0.0 | 0.0 | 0.00 | 0.00 | 0.00 | 86 | 1000.2 |
| 20260505200312 | 28 | 196 | 0.0 | 0.0 | 0.00 | 0.00 | 0.00 | 86 | 1000.2 |
| 20260505200203 | 28 | 121 | 0.0 | 0.0 | 0.00 | 0.00 | 0.00 | 86 | 1000.3 |
| 20260505200103 | 28 | 164 | 0.0 | 0.0 | 0.00 | 0.00 | 0.00 | 86 | 1000.3 |
| 20260505200003 | 28 | 76 | 0.0 | 0.0 | 0.00 | 0.00 | 0.00 | 86 | 1000.3 |
| 20260505195902 | 28 | 168 | 0.0 | 0.0 | 0.00 | 0.00 | 0.00 | 86 | 1000.3 |
| 20260505195805 | 28 | 178 | 0.0 | 0.0 | 0.00 | 0.00 | 0.00 | 86 | 1000.4 |
| 20260505195702 | 28 | 176 | 0.0 | 0.0 | 0.00 | 0.00 | 0.00 | 86 | 1000.4 |
| 20260505195603 | 28 | 171 | 0.0 | 6.4 | 0.00 | 0.00 | 0.00 | 86 | 1000.4 |
| 20260505195504 | 28 | 171 | 0.0 | 8.0 | 0.00 | 0.00 | 0.00 | 86 | 1000.4 |
| 20260505195403 | 28 | 171 | 0.0 | 8.0 | 0.00 | 0.00 | 0.00 | 86 | 1000.5 |
| 20260505195304 | 28 | 169 | 0.0 | 8.0 | 0.00 | 0.00 | 0.00 | 86 | 1000.5 |
| 20260505195202 | 28 | 207 | 0.0 | 8.0 | 0.00 | 0.00 | 0.00 | 86 | 1000.4 |
| 20260505195103 | 28 | 207 | 0.0 | 8.0 | 0.00 | 0.00 | 0.00 | 85 | 1000.5 |
| 20260505195003 | 28 | 207 | 0.0 | 8.0 | 0.00 | 0.00 | 0.00 | 85 | 1000.5 |
| 20260505194902 | 28 | 207 | 0.0 | 8.0 | 0.00 | 0.00 | 0.00 | 85 | 1000.5 |
| 20260505194804 | 28 | 206 | 0.0 | 8.0 | 0.00 | 0.00 | 0.00 | 85 | 1000.6 |
| 20260505194704 | 28 | 186 | 1.6 | 8.0 | 0.00 | 0.00 | 0.00 | 86 | 1000.6 |
| 20260505194602 | 28 | 216 | 0.0 | 8.0 | 0.00 | 0.00 | 0.00 | 86 | 1000.6 |
| 20260505194504 | 28 | 227 | 0.0 | 0.0 | 0.00 | 0.00 | 0.00 | 86 | 1000.5 |
| 20260505194403 | 28 | 234 | 0.0 | 0.0 | 0.00 | 0.00 | 0.00 | 86 | 1000.6 |
| 20260505194303 | 28 | 195 | 0.0 | 0.0 | 0.00 | 0.00 | 0.00 | 86 | 1000.6 |
| 20260505194203 | 28 | 196 | 0.0 | 0.0 | 0.00 | 0.00 | 0.00 | 86 | 1000.6 |
| 20260505194102 | 28 | 171 | 0.0 | 0.0 | 0.00 | 0.00 | 0.00 | 86 | 1000.7 |
| 20260505194002 | 28 | 278 | 0.0 | 0.0 | 0.00 | 0.00 | 0.00 | 86 | 1000.7 |
| 20260505193904 | 28 | 278 | 0.0 | 1.6 | 0.00 | 0.00 | 0.00 | 86 | 1000.7 |
| 20260505193805 | 28 | 197 | 0.0 | 1.6 | 0.00 | 0.00 | 0.00 | 86 | 1000.7 |
| 20260505193705 | 28 | 185 | 0.0 | 1.6 | 0.00 | 0.00 | 0.00 | 86 | 1000.7 |
| 20260505193603 | 27 | 110 | 0.0 | 1.6 | 0.00 | 0.00 | 0.00 | 86 | 1000.7 |
| 20260505193503 | 27 | 212 | 0.0 | 6.4 | 0.00 | 0.00 | 0.00 | 86 | 1000.7 |
| 20260505193402 | 27 | 212 | 0.0 | 6.4 | 0.00 | 0.00 | 0.00 | 86 | 1000.6 |
| 20260505193304 | 27 | 206 | 0.0 | 8.0 | 0.00 | 0.00 | 0.00 | 86 | 1000.6 |
| 20260505193204 | 27 | 199 | 0.0 | 8.0 | 0.00 | 0.00 | 0.00 | 86 | 1000.7 |
| 20260505193102 | 27 | 173 | 0.0 | 8.0 | 0.00 | 0.00 | 0.00 | 86 | 1000.7 |
| 20260505193003 | 27 | 252 | 0.0 | 8.0 | 0.00 | 0.00 | 0.00 | 86 | 1000.7 |
| 20260505192904 | 27 | 125 | 0.0 | 8.0 | 0.00 | 0.00 | 0.00 | 86 | 1000.7 |
| 20260505192803 | 27 | 147 | 0.0 | 8.0 | 0.00 | 0.00 | 0.00 | 87 | 1000.7 |
| 20260505192705 | 27 | 182 | 0.0 | 8.0 | 0.00 | 0.00 | 0.00 | 87 | 1000.7 |
| 20260505192604 | 27 | 178 | 0.0 | 8.0 | 0.00 | 0.00 | 0.00 | 87 | 1000.8 |
| 20260505192503 | 27 | 168 | 1.6 | 8.0 | 0.00 | 0.00 | 0.00 | 87 | 1000.7 |
| 20260505192403 | 27 | 144 | 1.6 | 8.0 | 0.00 | 0.00 | 0.00 | 87 | 1000.7 |
| 20260505192259 | 27 | 183 | 3.2 | 6.4 | 0.00 | 0.00 | 0.00 | 87 | 1000.7 |
| 20260505192200 | 27 | 157 | 3.2 | 6.4 | 0.00 | 0.00 | 0.00 | 87 | 1000.8 |
| 20260505192055 | 27 | 152 | 1.6 | 4.8 | 0.00 | 0.00 | 0.00 | 87 | 1000.7 |
| 20260505191950 | 27 | 25 | 0.0 | 1.6 | 0.00 | 0.00 | 0.00 | 87 | 1000.6 |
| 20260505191835 | 27 | 313 | 0.0 | 1.6 | 0.00 | 0.00 | 0.00 | 87 | 1000.6 |
| 20260505191732 | 27 | 309 | 0.0 | 1.6 | 0.00 | 0.00 | 0.00 | 87 | 1000.7 |
| 20260505191630 | 27 | 99 | 0.0 | 3.2 | 0.00 | 0.00 | 0.00 | 87 | 1000.6 |
| 20260505191533 | 27 | 182 | 0.0 | 3.2 | 0.00 | 0.00 | 0.00 | 87 | 1000.6 |
| 20260505191432 | 27 | 182 | 0.0 | 3.2 | 0.00 | 0.00 | 0.00 | 87 | 1000.6 |
| 20260505191331 | 27 | 200 | 0.0 | 3.2 | 0.00 | 0.00 | 0.00 | 87 | 1000.7 |
| 20260505191231 | 27 | 200 | 0.0 | 3.2 | 0.00 | 0.00 | 0.00 | 87 | 1000.7 |
| 20260505191131 | 27 | 210 | 0.0 | 3.2 | 0.00 | 0.00 | 0.00 | 87 | 1000.7 |
| 20260505191032 | 27 | 210 | 0.0 | 3.2 | 0.00 | 0.00 | 0.00 | 87 | 1000.6 |
| 20260505190933 | 27 | 210 | 0.0 | 3.2 | 0.00 | 0.00 | 0.00 | 87 | 1000.6 |
| 20260505190832 | 27 | 134 | 0.0 | 3.2 | 0.00 | 0.00 | 0.00 | 87 | 1000.7 |
| 20260505190731 | 27 | 133 | 0.0 | 3.2 | 0.00 | 0.00 | 0.00 | 87 | 1000.8 |
| 20260505190632 | 27 | 192 | 0.0 | 1.6 | 0.00 | 0.00 | 0.00 | 87 | 1000.7 |
| 20260505190533 | 27 | 300 | 0.0 | 1.6 | 0.00 | 0.00 | 0.00 | 87 | 1000.7 |
| 20260505190432 | 27 | 300 | 0.0 | 1.6 | 0.00 | 0.00 | 0.00 | 87 | 1000.7 |
| 20260505190330 | 27 | 300 | 0.0 | 1.6 | 0.00 | 0.00 | 0.00 | 87 | 1000.7 |
| 20260505190225 | 27 | 300 | 0.0 | 1.6 | 0.00 | 0.00 | 0.00 | 87 | 1000.8 |
| 20260505190118 | 27 | 300 | 0.0 | 1.6 | 0.00 | 0.00 | 0.00 | 87 | 1000.8 |
| 20260505190014 | 27 | 295 | 0.0 | 1.6 | 0.00 | 0.00 | 0.00 | 87 | 1000.7 |
| 20260505185906 | 27 | 37 | 0.0 | 1.6 | 0.00 | 0.00 | 0.00 | 88 | 1000.8 |
| 20260505185804 | 27 | 261 | 0.0 | 1.6 | 0.00 | 0.00 | 0.00 | 88 | 1000.8 |
| 20260505185705 | 27 | 235 | 0.0 | 1.6 | 0.00 | 0.00 | 0.00 | 88 | 1000.8 |
| 20260505185604 | 27 | 144 | 0.0 | 4.8 | 0.00 | 0.00 | 0.00 | 88 | 1000.8 |
| 20260505185505 | 27 | 278 | 0.0 | 4.8 | 0.00 | 0.00 | 0.00 | 88 | 1000.9 |
| 20260505185402 | 27 | 271 | 0.0 | 4.8 | 0.00 | 0.00 | 0.00 | 88 | 1000.9 |
| 20260505185304 | 27 | 269 | 0.0 | 4.8 | 0.00 | 0.00 | 0.00 | 88 | 1000.8 |
| 20260505185204 | 27 | 125 | 0.0 | 4.8 | 0.00 | 0.00 | 0.00 | 88 | 1000.8 |
| 20260505185102 | 27 | 210 | 0.0 | 4.8 | 0.00 | 0.00 | 0.00 | 88 | 1000.8 |
| 20260505185003 | 27 | 210 | 0.0 | 4.8 | 0.00 | 0.00 | 0.00 | 88 | 1000.8 |
| 20260505184902 | 27 | 234 | 0.0 | 4.8 | 0.00 | 0.00 | 0.00 | 88 | 1000.8 |
| 20260505184802 | 27 | 162 | 0.0 | 4.8 | 0.00 | 0.00 | 0.00 | 88 | 1000.8 |
| 20260505184702 | 27 | 219 | 0.0 | 4.8 | 0.00 | 0.00 | 0.00 | 88 | 1000.7 |
| 20260505184603 | 27 | 138 | 0.0 | 4.8 | 0.00 | 0.00 | 0.00 | 89 | 1000.8 |
| 20260505184504 | 27 | 193 | 0.0 | 4.8 | 0.00 | 0.00 | 0.00 | 89 | 1000.8 |
| 20260505184403 | 27 | 175 | 0.0 | 4.8 | 0.00 | 0.00 | 0.00 | 89 | 1000.8 |
| 20260505184304 | 27 | 71 | 0.0 | 4.8 | 0.00 | 0.00 | 0.00 | 89 | 1000.8 |
| 20260505184203 | 27 | 266 | 0.0 | 4.8 | 0.00 | 0.00 | 0.00 | 89 | 1000.8 |
| 20260505184104 | 27 | 265 | 0.0 | 4.8 | 0.00 | 0.00 | 0.00 | 89 | 1000.9 |
| 20260505184004 | 27 | 281 | 0.0 | 4.8 | 0.00 | 0.00 | 0.00 | 89 | 1000.8 |
| 20260505183902 | 27 | 200 | 0.0 | 3.2 | 0.00 | 0.00 | 0.00 | 89 | 1000.9 |
| 20260505183802 | 27 | 254 | 0.0 | 4.8 | 0.00 | 0.00 | 0.00 | 89 | 1000.9 |
| 20260505183703 | 27 | 72 | 0.0 | 4.8 | 0.00 | 0.00 | 0.00 | 89 | 1000.9 |
| 20260505183602 | 26 | 199 | 0.0 | 4.8 | 0.00 | 0.00 | 0.00 | 89 | 1000.8 |
| 20260505183504 | 26 | 240 | 0.0 | 4.8 | 0.00 | 0.00 | 0.00 | 89 | 1000.9 |
| 20260505183403 | 26 | 254 | 0.0 | 4.8 | 0.00 | 0.00 | 0.00 | 89 | 1001.0 |
| 20260505183302 | 26 | 212 | 0.0 | 4.8 | 0.00 | 0.00 | 0.00 | 89 | 1001.0 |
| 20260505183203 | 26 | 248 | 0.0 | 4.8 | 0.00 | 0.00 | 0.00 | 89 | 1000.9 |
| 20260505183107 | 26 | 255 | 0.0 | 4.8 | 0.00 | 0.00 | 0.00 | 90 | 1000.9 |
| 20260505183002 | 26 | 241 | 0.0 | 4.8 | 0.00 | 0.00 | 0.00 | 90 | 1001.0 |
| 20260505182903 | 26 | 180 | 0.0 | 4.8 | 0.00 | 0.00 | 0.00 | 90 | 1001.0 |
| 20260505182803 | 26 | 197 | 0.0 | 3.2 | 0.00 | 0.00 | 0.00 | 90 | 1001.0 |
| 20260505182702 | 26 | 169 | 0.0 | 3.2 | 0.00 | 0.00 | 0.00 | 90 | 1000.9 |
| 20260505182606 | 26 | 269 | 0.0 | 1.6 | 0.00 | 0.00 | 0.00 | 90 | 1000.9 |
| 20260505182503 | 26 | 245 | 0.0 | 1.6 | 0.00 | 0.00 | 0.00 | 90 | 1000.9 |
| 20260505182402 | 26 | 248 | 0.0 | 1.6 | 0.00 | 0.00 | 0.00 | 90 | 1000.9 |
| 20260505182305 | 26 | 93 | 0.0 | 0.0 | 0.00 | 0.00 | 0.00 | 90 | 1001.1 |
| 20260505182203 | 26 | 223 | 0.0 | 0.0 | 0.00 | 0.00 | 0.00 | 90 | 1001.0 |
| 20260505182104 | 26 | 324 | 0.0 | 0.0 | 0.00 | 0.00 | 0.00 | 90 | 1001.1 |
| 20260505182004 | 26 | 151 | 0.0 | 0.0 | 0.00 | 0.00 | 0.00 | 90 | 1001.1 |
| 20260505181903 | 26 | 281 | 0.0 | 0.0 | 0.00 | 0.00 | 0.00 | 90 | 1001.0 |
| 20260505181802 | 26 | 151 | 0.0 | 0.0 | 0.00 | 0.00 | 0.00 | 90 | 1001.0 |
| 20260505181703 | 26 | 0 | 0.0 | 0.0 | 0.00 | 0.00 | 0.00 | 90 | 1001.0 |
| 20260505181604 | 26 | 0 | 0.0 | 1.6 | 0.00 | 0.00 | 0.00 | 90 | 1001.0 |
| 20260505181504 | 26 | 0 | 0.0 | 1.6 | 0.00 | 0.00 | 0.00 | 90 | 1001.1 |
| 20260505181402 | 26 | 0 | 0.0 | 1.6 | 0.00 | 0.00 | 0.00 | 90 | 1001.1 |
| 20260505181303 | 26 | 0 | 0.0 | 1.6 | 0.00 | 0.00 | 0.00 | 90 | 1001.1 |
| 20260505181204 | 26 | 320 | 0.0 | 1.6 | 0.00 | 0.00 | 0.00 | 90 | 1001.1 |
| 20260505181102 | 26 | 210 | 0.0 | 1.6 | 0.00 | 0.00 | 0.00 | 90 | 1001.2 |
| 20260505181005 | 26 | 207 | 0.0 | 1.6 | 0.00 | 0.00 | 0.00 | 90 | 1001.2 |
| 20260505180904 | 26 | 213 | 0.0 | 1.6 | 0.00 | 0.00 | 0.00 | 90 | 1001.2 |
| 20260505180803 | 26 | 212 | 0.0 | 1.6 | 0.00 | 0.00 | 0.00 | 90 | 1001.2 |
| 20260505180704 | 26 | 285 | 0.0 | 1.6 | 0.00 | 0.00 | 0.00 | 90 | 1001.2 |
| 20260505180602 | 26 | 226 | 0.0 | 1.6 | 0.00 | 0.00 | 0.00 | 90 | 1001.3 |
| 20260505180503 | 26 | 140 | 0.0 | 1.6 | 0.00 | 0.00 | 0.00 | 90 | 1001.3 |
| 20260505180405 | 26 | 196 | 0.0 | 1.6 | 0.00 | 0.00 | 0.00 | 90 | 1001.2 |
| 20260505180304 | 26 | 197 | 0.0 | 1.6 | 0.00 | 0.00 | 0.00 | 90 | 1001.2 |
| 20260505180203 | 26 | 63 | 0.0 | 1.6 | 0.00 | 0.00 | 0.00 | 90 | 1001.2 |
| 20260505180103 | 26 | 63 | 0.0 | 1.6 | 0.00 | 0.00 | 0.00 | 90 | 1001.3 |
| 20260505180003 | 26 | 62 | 0.0 | 1.6 | 0.00 | 0.00 | 0.00 | 91 | 1001.3 |
| 20260505175904 | 26 | 58 | 0.0 | 1.6 | 0.00 | 0.00 | 0.00 | 91 | 1001.3 |
| 20260505175803 | 26 | 207 | 0.0 | 1.6 | 0.00 | 0.00 | 0.00 | 91 | 1001.4 |
| 20260505175704 | 26 | 200 | 0.0 | 1.6 | 0.00 | 0.00 | 0.00 | 91 | 1001.4 |
| 20260505175602 | 26 | 343 | 0.0 | 1.6 | 0.00 | 0.00 | 0.00 | 91 | 1001.3 |
| 20260505175505 | 26 | 223 | 0.0 | 1.6 | 0.00 | 0.00 | 0.00 | 91 | 1001.2 |
| 20260505175404 | 26 | 221 | 0.0 | 1.6 | 0.00 | 0.00 | 0.00 | 91 | 1001.4 |
| 20260505175305 | 26 | 219 | 0.0 | 1.6 | 0.00 | 0.00 | 0.00 | 91 | 1001.3 |
| 20260505175204 | 26 | 219 | 0.0 | 1.6 | 0.00 | 0.00 | 0.00 | 91 | 1001.3 |
| 20260505175103 | 26 | 209 | 0.0 | 1.6 | 0.00 | 0.00 | 0.00 | 91 | 1001.3 |
| 20260505175003 | 26 | 25 | 0.0 | 0.0 | 0.00 | 0.00 | 0.00 | 91 | 1001.3 |
| 20260505174902 | 26 | 254 | 0.0 | 0.0 | 0.00 | 0.00 | 0.00 | 92 | 1001.3 |
| 20260505174803 | 26 | 195 | 0.0 | 0.0 | 0.00 | 0.00 | 0.00 | 92 | 1001.2 |
| 20260505174702 | 26 | 196 | 0.0 | 0.0 | 0.00 | 0.00 | 0.00 | 92 | 1001.1 |
| 20260505174602 | 26 | 118 | 0.0 | 0.0 | 0.00 | 0.00 | 0.00 | 92 | 1001.3 |
| 20260505174504 | 26 | 200 | 0.0 | 0.0 | 0.00 | 0.00 | 0.00 | 92 | 1001.3 |
| 20260505174402 | 26 | 168 | 0.0 | 0.0 | 0.00 | 0.00 | 0.00 | 92 | 1001.3 |
| 20260505174304 | 26 | 20 | 0.0 | 0.0 | 0.00 | 0.00 | 0.00 | 92 | 1001.3 |
| 20260505174203 | 26 | 20 | 0.0 | 0.0 | 0.00 | 0.00 | 0.00 | 93 | 1001.4 |
| 20260505174103 | 26 | 157 | 0.0 | 0.0 | 0.00 | 0.00 | 0.00 | 93 | 1001.3 |
| 20260505174004 | 26 | 298 | 0.0 | 1.6 | 0.00 | 0.00 | 0.00 | 93 | 1001.3 |
| 20260505173902 | 26 | 295 | 0.0 | 1.6 | 0.00 | 0.00 | 0.00 | 93 | 1001.4 |
| 20260505173804 | 26 | 63 | 0.0 | 1.6 | 0.00 | 0.00 | 0.00 | 93 | 1001.4 |
| 20260505173705 | 26 | 0 | 0.0 | 1.6 | 0.00 | 0.00 | 0.00 | 93 | 1001.4 |
| 20260505173603 | 26 | 336 | 0.0 | 1.6 | 0.00 | 0.00 | 0.00 | 93 | 1001.4 |
| 20260505173503 | 26 | 337 | 0.0 | 1.6 | 0.00 | 0.00 | 0.00 | 93 | 1001.3 |
| 20260505173403 | 26 | 337 | 0.0 | 1.6 | 0.00 | 0.00 | 0.00 | 93 | 1001.3 |
| 20260505173302 | 26 | 351 | 0.0 | 1.6 | 0.00 | 0.00 | 0.00 | 93 | 1001.4 |
| 20260505173203 | 26 | 230 | 0.0 | 1.6 | 0.00 | 0.00 | 0.00 | 93 | 1001.4 |
| 20260505173103 | 26 | 162 | 0.0 | 1.6 | 0.00 | 0.00 | 0.00 | 93 | 1001.3 |
| 20260505172954 | 26 | 235 | 0.0 | 1.6 | 0.00 | 0.00 | 0.00 | 93 | 1001.4 |
| 20260505172851 | 25 | 235 | 0.0 | 1.6 | 0.00 | 0.00 | 0.00 | 93 | 1001.3 |
| 20260505172746 | 25 | 197 | 0.0 | 1.6 | 0.00 | 0.00 | 0.00 | 93 | 1001.3 |
| 20260505172646 | 25 | 305 | 0.0 | 1.6 | 0.00 | 0.00 | 0.00 | 93 | 1001.4 |
| 20260505172542 | 25 | 305 | 0.0 | 1.6 | 0.00 | 0.00 | 0.00 | 93 | 1001.4 |
| 20260505172441 | 25 | 305 | 0.0 | 1.6 | 0.00 | 0.00 | 0.00 | 93 | 1001.4 |
| 20260505172331 | 25 | 161 | 0.0 | 1.6 | 0.00 | 0.00 | 0.00 | 93 | 1001.4 |
| 20260505172233 | 25 | 226 | 0.0 | 1.6 | 0.00 | 0.00 | 0.00 | 94 | 1001.4 |
| 20260505172131 | 25 | 144 | 0.0 | 1.6 | 0.00 | 0.00 | 0.00 | 94 | 1001.3 |
| 20260505172030 | 25 | 155 | 0.0 | 1.6 | 0.00 | 0.00 | 0.00 | 94 | 1001.4 |
| 20260505171932 | 25 | 179 | 0.0 | 9.7 | 0.00 | 0.00 | 0.00 | 94 | 1001.4 |
| 20260505171832 | 25 | 212 | 0.0 | 9.7 | 0.00 | 0.00 | 0.00 | 94 | 1001.4 |
| 20260505171731 | 25 | 204 | 0.0 | 9.7 | 0.00 | 0.00 | 0.00 | 94 | 1001.5 |
| 20260505171631 | 25 | 204 | 0.0 | 9.7 | 0.00 | 0.00 | 0.00 | 94 | 1001.4 |
| 20260505171533 | 25 | 200 | 0.0 | 9.7 | 0.00 | 0.00 | 0.00 | 94 | 1001.4 |
| 20260505171431 | 25 | 165 | 0.0 | 9.7 | 0.00 | 0.00 | 0.00 | 94 | 1001.4 |
| 20260505171332 | 25 | 166 | 0.0 | 9.7 | 0.00 | 0.00 | 0.00 | 94 | 1001.5 |
| 20260505171230 | 25 | 165 | 0.0 | 9.7 | 0.00 | 0.00 | 0.00 | 94 | 1001.4 |
| 20260505171132 | 25 | 165 | 3.2 | 9.7 | 0.00 | 0.00 | 0.00 | 94 | 1001.4 |
| 20260505171031 | 25 | 159 | 3.2 | 9.7 | 0.00 | 0.00 | 0.00 | 95 | 1001.4 |
| 20260505170931 | 25 | 237 | 0.0 | 4.8 | 0.00 | 0.00 | 0.00 | 95 | 1001.5 |
| 20260505170831 | 25 | 234 | 0.0 | 4.8 | 0.00 | 0.00 | 0.00 | 95 | 1001.5 |
| 20260505170731 | 25 | 235 | 0.0 | 4.8 | 0.00 | 0.00 | 0.00 | 95 | 1001.4 |
| 20260505170633 | 25 | 235 | 0.0 | 4.8 | 0.00 | 0.00 | 0.00 | 95 | 1001.5 |
| 20260505170532 | 25 | 234 | 0.0 | 4.8 | 0.00 | 0.00 | 0.00 | 95 | 1001.4 |
| 20260505170431 | 25 | 71 | 1.6 | 4.8 | 0.00 | 0.00 | 0.00 | 95 | 1001.5 |
| 20260505170333 | 25 | 233 | 1.6 | 4.8 | 0.00 | 0.00 | 0.00 | 96 | 1001.4 |
| 20260505170231 | 25 | 282 | 0.0 | 0.0 | 0.00 | 0.00 | 0.00 | 96 | 1001.5 |
| 20260505170130 | 25 | 220 | 0.0 | 0.0 | 0.00 | 0.00 | 0.00 | 96 | 1001.5 |
| 20260505170030 | 25 | 350 | 0.0 | 1.6 | 0.00 | 0.00 | 0.00 | 96 | 1001.5 |
| 20260505165928 | 25 | 307 | 0.0 | 1.6 | 0.00 | 0.00 | 0.00 | 96 | 1001.6 |
| 20260505165831 | 25 | 293 | 0.0 | 1.6 | 0.00 | 0.00 | 0.00 | 96 | 1001.5 |
| 20260505165730 | 25 | 172 | 0.0 | 1.6 | 0.00 | 0.00 | 0.00 | 96 | 1001.6 |
| 20260505165630 | 25 | 172 | 0.0 | 1.6 | 0.00 | 0.00 | 0.00 | 96 | 1001.6 |
| 20260505165528 | 25 | 172 | 0.0 | 1.6 | 0.00 | 0.00 | 0.00 | 96 | 1001.5 |
| 20260505165430 | 25 | 172 | 0.0 | 1.6 | 0.00 | 0.00 | 0.00 | 96 | 1001.6 |
| 20260505165331 | 25 | 172 | 0.0 | 1.6 | 0.00 | 0.00 | 0.00 | 96 | 1001.5 |
| 20260505165228 | 25 | 172 | 0.0 | 1.6 | 0.00 | 0.00 | 0.00 | 96 | 1001.5 |
| 20260505165128 | 25 | 168 | 1.6 | 4.8 | 0.00 | 0.00 | 0.00 | 96 | 1001.6 |
| 20260505165028 | 25 | 204 | 0.0 | 4.8 | 0.00 | 0.00 | 0.00 | 96 | 1001.6 |
| 20260505164929 | 25 | 178 | 0.0 | 4.8 | 0.00 | 0.00 | 0.00 | 96 | 1001.6 |
| 20260505164828 | 25 | 145 | 0.0 | 4.8 | 0.00 | 0.00 | 0.00 | 96 | 1001.6 |
| 20260505164729 | 25 | 145 | 0.0 | 4.8 | 0.00 | 0.00 | 0.00 | 96 | 1001.6 |
| 20260505164629 | 25 | 134 | 0.0 | 4.8 | 0.00 | 0.00 | 0.00 | 96 | 1001.6 |
| 20260505164530 | 25 | 32 | 0.0 | 4.8 | 0.00 | 0.00 | 0.00 | 96 | 1001.6 |
| 20260505164430 | 25 | 141 | 0.0 | 4.8 | 0.00 | 0.00 | 0.00 | 97 | 1001.6 |
| 20260505164330 | 25 | 38 | 0.0 | 4.8 | 0.00 | 0.00 | 0.00 | 97 | 1001.6 |
| 20260505164229 | 25 | 303 | 0.0 | 4.8 | 0.00 | 0.00 | 0.00 | 97 | 1001.6 |
| 20260505164128 | 25 | 175 | 0.0 | 4.8 | 0.00 | 0.00 | 0.00 | 97 | 1001.6 |
| 20260505164029 | 25 | 175 | 0.0 | 4.8 | 0.00 | 0.00 | 0.00 | 97 | 1001.6 |
| 20260505163929 | 25 | 189 | 0.0 | 4.8 | 0.00 | 0.00 | 0.00 | 97 | 1001.6 |
| 20260505163828 | 25 | 199 | 0.0 | 4.8 | 0.00 | 0.00 | 0.00 | 97 | 1001.6 |
| 20260505163728 | 25 | 199 | 0.0 | 4.8 | 0.00 | 0.00 | 0.00 | 97 | 1001.6 |
| 20260505163628 | 25 | 199 | 0.0 | 4.8 | 0.00 | 0.00 | 0.00 | 97 | 1001.6 |
| 20260505163530 | 24 | 192 | 0.0 | 4.8 | 0.00 | 0.00 | 0.00 | 97 | 1001.7 |
| 20260505163429 | 24 | 255 | 0.0 | 4.8 | 0.00 | 0.00 | 0.00 | 97 | 1001.6 |
| 20260505163331 | 24 | 255 | 0.0 | 4.8 | 0.00 | 0.00 | 0.00 | 97 | 1001.6 |
| 20260505163229 | 24 | 288 | 0.0 | 3.2 | 0.00 | 0.00 | 0.00 | 97 | 1001.6 |
| 20260505163128 | 24 | 288 | 0.0 | 3.2 | 0.00 | 0.00 | 0.00 | 96 | 1001.7 |
| 20260505163029 | 24 | 288 | 0.0 | 3.2 | 0.00 | 0.00 | 0.00 | 96 | 1001.6 |
| 20260505162930 | 24 | 288 | 0.0 | 3.2 | 0.00 | 0.00 | 0.00 | 96 | 1001.7 |
| 20260505162828 | 24 | 289 | 0.0 | 4.8 | 0.00 | 0.00 | 0.00 | 96 | 1001.6 |
| 20260505162728 | 24 | 288 | 0.0 | 4.8 | 0.00 | 0.00 | 0.00 | 96 | 1001.6 |
| 20260505162628 | 24 | 288 | 0.0 | 4.8 | 0.00 | 0.00 | 0.00 | 96 | 1001.7 |
| 20260505162528 | 24 | 288 | 0.0 | 4.8 | 0.00 | 0.00 | 0.00 | 96 | 1001.7 |
| 20260505162428 | 24 | 186 | 0.0 | 4.8 | 0.00 | 0.00 | 0.00 | 96 | 1001.6 |
| 20260505162329 | 24 | 185 | 0.0 | 4.8 | 0.00 | 0.00 | 0.00 | 96 | 1001.7 |
| 20260505162228 | 24 | 128 | 0.0 | 4.8 | 0.00 | 0.00 | 0.00 | 96 | 1001.8 |
| 20260505162127 | 24 | 183 | 0.0 | 4.8 | 0.00 | 0.00 | 0.00 | 96 | 1001.7 |
| 20260505162028 | 24 | 182 | 1.6 | 4.8 | 0.00 | 0.00 | 0.00 | 97 | 1001.7 |
| 20260505161928 | 24 | 265 | 0.0 | 4.8 | 0.00 | 0.00 | 0.00 | 97 | 1001.6 |
| 20260505161828 | 24 | 161 | 0.0 | 3.2 | 0.00 | 0.00 | 0.00 | 97 | 1001.7 |
| 20260505161728 | 24 | 159 | 0.0 | 3.2 | 0.00 | 0.00 | 0.00 | 97 | 1001.6 |
| 20260505161630 | 24 | 178 | 0.0 | 0.0 | 0.00 | 0.00 | 0.00 | 97 | 1001.7 |
| 20260505161528 | 24 | 166 | 0.0 | 0.0 | 0.00 | 0.00 | 0.00 | 97 | 1001.6 |
| 20260505161429 | 24 | 179 | 0.0 | 1.6 | 0.00 | 0.00 | 0.00 | 97 | 1001.6 |
| 20260505161327 | 24 | 178 | 0.0 | 3.2 | 0.00 | 0.00 | 0.00 | 97 | 1001.6 |
| 20260505161228 | 24 | 178 | 0.0 | 3.2 | 0.00 | 0.00 | 0.00 | 97 | 1001.6 |
| 20260505161139 | 24 | 178 | 0.0 | 3.2 | 0.00 | 0.00 | 0.00 | 97 | 1001.6 |
| 20260505161029 | 24 | 56 | 0.0 | 3.2 | 0.00 | 0.00 | 0.00 | 97 | 1001.5 |
| 20260505160928 | 24 | 42 | 0.0 | 3.2 | 0.00 | 0.00 | 0.00 | 97 | 1001.6 |
| 20260505160829 | 24 | 42 | 0.0 | 3.2 | 0.00 | 0.00 | 0.00 | 97 | 1001.5 |
| 20260505160728 | 24 | 333 | 0.0 | 3.2 | 0.00 | 0.00 | 0.00 | 97 | 1001.6 |
| 20260505160633 | 24 | 345 | 0.0 | 6.4 | 0.00 | 0.00 | 0.00 | 97 | 1001.5 |
| 20260505160527 | 24 | 345 | 1.6 | 6.4 | 0.00 | 0.00 | 0.00 | 97 | 1001.5 |
| 20260505160427 | 24 | 250 | 1.6 | 6.4 | 0.00 | 0.00 | 0.00 | 97 | 1001.5 |
| 20260505160329 | 24 | 343 | 0.0 | 6.4 | 0.00 | 0.00 | 0.00 | 97 | 1001.5 |
| 20260505160229 | 24 | 343 | 0.0 | 6.4 | 0.00 | 0.00 | 0.00 | 97 | 1001.5 |
| 20260505160130 | 24 | 343 | 0.0 | 6.4 | 0.00 | 0.00 | 0.00 | 97 | 1001.5 |
| 20260505153303 | 23 | 165 | 0.0 | 4.8 | 0.00 | 0.00 | 0.00 | 98 | 1001.3 |
| 20260505153202 | 23 | 165 | 0.0 | 4.8 | 0.00 | 0.00 | 0.00 | 98 | 1001.3 |
| 20260505153106 | 23 | 165 | 0.0 | 4.8 | 0.00 | 0.00 | 0.00 | 98 | 1001.4 |
| 20260505153003 | 23 | 171 | 0.0 | 3.2 | 0.00 | 0.00 | 0.00 | 98 | 1001.4 |
| 20260505152903 | 23 | 171 | 0.0 | 3.2 | 0.00 | 0.00 | 0.00 | 98 | 1001.3 |
| 20260505152802 | 23 | 171 | 0.0 | 3.2 | 0.00 | 0.00 | 0.00 | 98 | 1001.2 |
| 20260505152704 | 23 | 169 | 0.0 | 3.2 | 0.00 | 0.00 | 0.00 | 98 | 1001.2 |
| 20260505152604 | 23 | 169 | 0.0 | 3.2 | 0.00 | 0.00 | 0.00 | 98 | 1001.2 |
| 20260505152504 | 23 | 171 | 0.0 | 3.2 | 0.00 | 0.00 | 0.00 | 98 | 1001.2 |
| 20260505152403 | 23 | 178 | 1.6 | 3.2 | 0.00 | 0.00 | 0.00 | 98 | 1001.2 |
| 20260505152305 | 23 | 220 | 0.0 | 3.2 | 0.00 | 0.00 | 0.00 | 98 | 1001.3 |
| 20260505152202 | 23 | 250 | 0.0 | 3.2 | 0.00 | 0.00 | 0.00 | 98 | 1001.3 |
| 20260505152107 | 23 | 248 | 1.6 | 8.0 | 0.00 | 0.00 | 0.00 | 98 | 1001.3 |
| 20260505152004 | 23 | 250 | 0.0 | 8.0 | 0.00 | 0.00 | 0.00 | 98 | 1001.3 |
| 20260505151904 | 23 | 250 | 0.0 | 8.0 | 0.00 | 0.00 | 0.00 | 98 | 1001.3 |
| 20260505151802 | 23 | 247 | 0.0 | 8.0 | 0.00 | 0.00 | 0.00 | 98 | 1001.3 |
| 20260505151702 | 23 | 240 | 0.0 | 8.0 | 0.00 | 0.00 | 0.00 | 98 | 1001.3 |
| 20260505151606 | 23 | 245 | 0.0 | 8.0 | 0.00 | 0.00 | 0.00 | 98 | 1001.3 |
| 20260505151504 | 23 | 193 | 0.0 | 8.0 | 0.00 | 0.00 | 0.00 | 98 | 1001.4 |
| 20260505151402 | 23 | 123 | 0.0 | 8.0 | 0.00 | 0.00 | 0.00 | 98 | 1001.4 |
| 20260505151302 | 23 | 123 | 1.6 | 8.0 | 0.00 | 0.00 | 0.00 | 98 | 1001.4 |
| 20260505151203 | 23 | 127 | 1.6 | 8.0 | 0.00 | 0.00 | 0.00 | 98 | 1001.3 |
| 20260505151106 | 23 | 252 | 0.0 | 6.4 | 0.00 | 0.00 | 0.00 | 98 | 1001.4 |
| 20260505151004 | 23 | 251 | 1.6 | 6.4 | 0.00 | 0.00 | 0.00 | 98 | 1001.4 |
| 20260505150902 | 23 | 128 | 1.6 | 6.4 | 0.00 | 0.00 | 0.00 | 98 | 1001.3 |
| 20260505150803 | 23 | 237 | 0.0 | 3.2 | 0.00 | 0.00 | 0.00 | 98 | 1001.4 |
| 20260505150703 | 23 | 237 | 0.0 | 3.2 | 0.00 | 0.00 | 0.00 | 98 | 1001.4 |
| 20260505150610 | 23 | 237 | 0.0 | 3.2 | 0.00 | 0.00 | 0.00 | 98 | 1001.4 |
| 20260505150504 | 23 | 235 | 0.0 | 4.8 | 0.00 | 0.00 | 0.00 | 98 | 1001.3 |
| 20260505150404 | 23 | 235 | 0.0 | 4.8 | 0.00 | 0.00 | 0.00 | 98 | 1001.3 |
| 20260505150303 | 23 | 237 | 0.0 | 4.8 | 0.00 | 0.00 | 0.00 | 98 | 1001.3 |
| 20260505150203 | 23 | 237 | 0.0 | 4.8 | 0.00 | 0.00 | 0.00 | 98 | 1001.2 |
| 20260505140603 | 22 | 244 | 0.0 | 6.4 | 0.00 | 0.00 | 0.00 | 99 | 1001.2 |
| 20260505140502 | 22 | 244 | 0.0 | 6.4 | 0.00 | 0.00 | 0.00 | 99 | 1001.2 |
| 20260505140403 | 22 | 206 | 0.0 | 6.4 | 0.00 | 0.00 | 0.00 | 99 | 1001.2 |
| 20260505140304 | 22 | 212 | 1.6 | 6.4 | 0.00 | 0.00 | 0.00 | 99 | 1001.2 |
| 20260505140202 | 22 | 295 | 1.6 | 6.4 | 0.00 | 0.00 | 0.00 | 99 | 1001.0 |
| 20260505130225 | 21 | 162 | 0.0 | 4.8 | 0.00 | 0.00 | 0.00 | 99 | 1001.1 |
| 20260505130125 | 21 | 172 | 0.0 | 3.2 | 0.00 | 0.00 | 0.00 | 99 | 1001.1 |
| 20260505125024 | 21 | 180 | 0.0 | 3.2 | 0.00 | 0.00 | 0.00 | 99 | 1001.0 |
| 20260505124924 | 21 | 180 | 0.0 | 3.2 | 0.00 | 0.00 | 0.00 | 99 | 1001.0 |
| 20260505124816 | 21 | 185 | 0.0 | 3.2 | 0.00 | 0.00 | 0.00 | 99 | 1001.0 |
| 20260505124711 | 21 | 185 | 0.0 | 3.2 | 0.00 | 0.00 | 0.00 | 99 | 1000.9 |
| 20260505124604 | 21 | 185 | 0.0 | 3.2 | 0.00 | 0.00 | 0.00 | 99 | 1001.0 |
| 20260505124504 | 21 | 185 | 0.0 | 3.2 | 0.00 | 0.00 | 0.00 | 99 | 1001.0 |
| 20260505124403 | 21 | 288 | 0.0 | 3.2 | 0.00 | 0.00 | 0.00 | 99 | 1001.0 |
| 20260505124302 | 21 | 100 | 0.0 | 3.2 | 0.00 | 0.00 | 0.00 | 99 | 1000.9 |
| 20260505124203 | 21 | 123 | 0.0 | 3.2 | 0.00 | 0.00 | 0.00 | 99 | 1001.0 |
| 20260505124106 | 21 | 123 | 0.0 | 3.2 | 0.00 | 0.00 | 0.00 | 99 | 1001.0 |
| 20260505124004 | 21 | 117 | 0.0 | 4.8 | 0.00 | 0.00 | 0.00 | 99 | 1000.8 |
| 20260505123902 | 21 | 117 | 0.0 | 4.8 | 0.00 | 0.00 | 0.00 | 99 | 1000.7 |
| 20260505123803 | 21 | 116 | 0.0 | 4.8 | 0.00 | 0.00 | 0.00 | 99 | 1000.6 |
| 20260505123704 | 21 | 214 | 0.0 | 4.8 | 0.00 | 0.00 | 0.00 | 99 | 1000.5 |
| 20260505123602 | 21 | 209 | 0.0 | 4.8 | 0.00 | 0.00 | 0.00 | 99 | 1000.6 |
| 20260505123506 | 21 | 199 | 0.0 | 4.8 | 0.00 | 0.00 | 0.00 | 99 | 1000.5 |
| 20260505123403 | 21 | 168 | 0.0 | 4.8 | 0.00 | 0.00 | 0.00 | 99 | 1000.4 |
| 20260505123302 | 21 | 166 | 0.0 | 4.8 | 0.00 | 0.00 | 0.00 | 99 | 1000.4 |
| 20260505123206 | 21 | 166 | 1.6 | 4.8 | 0.00 | 0.00 | 0.00 | 99 | 1000.4 |
| 20260505123102 | 21 | 319 | 0.0 | 4.8 | 0.00 | 0.00 | 0.00 | 99 | 1000.4 |
| 20260505123005 | 21 | 233 | 1.6 | 3.2 | 0.00 | 0.00 | 0.00 | 99 | 1000.4 |
| 20260505122904 | 21 | 233 | 0.0 | 3.2 | 0.00 | 0.00 | 0.00 | 99 | 1000.4 |
| 20260505122802 | 21 | 238 | 0.0 | 3.2 | 0.00 | 0.00 | 0.00 | 99 | 1000.5 |
| 20260505122702 | 21 | 240 | 0.0 | 3.2 | 0.00 | 0.00 | 0.00 | 99 | 1000.4 |
| 20260505122603 | 21 | 240 | 0.0 | 3.2 | 0.00 | 0.00 | 0.00 | 99 | 1000.6 |
| 20260505122503 | 21 | 240 | 0.0 | 3.2 | 0.00 | 0.00 | 0.00 | 99 | 1000.6 |
| 20260505122403 | 21 | 240 | 0.0 | 3.2 | 0.00 | 0.00 | 0.00 | 99 | 1000.5 |
| 20260505122305 | 21 | 275 | 0.0 | 3.2 | 0.00 | 0.00 | 0.00 | 99 | 1000.5 |
| 20260505122204 | 21 | 275 | 0.0 | 3.2 | 0.00 | 0.00 | 0.00 | 99 | 1000.6 |
| 20260505122102 | 21 | 276 | 0.0 | 3.2 | 0.00 | 0.00 | 0.00 | 99 | 1000.6 |
| 20260505122005 | 21 | 278 | 0.0 | 3.2 | 0.00 | 0.00 | 0.00 | 99 | 1000.6 |
| 20260505121904 | 21 | 278 | 0.0 | 3.2 | 0.00 | 0.00 | 0.00 | 99 | 1000.6 |
| 20260505121802 | 21 | 217 | 0.0 | 3.2 | 0.00 | 0.00 | 0.00 | 99 | 1000.6 |
| 20260505121703 | 21 | 219 | 0.0 | 3.2 | 0.00 | 0.00 | 0.00 | 99 | 1000.6 |
| 20260505121602 | 21 | 219 | 0.0 | 3.2 | 0.00 | 0.00 | 0.00 | 99 | 1000.6 |
| 20260505121502 | 21 | 219 | 0.0 | 3.2 | 0.00 | 0.00 | 0.00 | 99 | 1000.6 |
| 20260505121402 | 21 | 219 | 0.0 | 3.2 | 0.00 | 0.00 | 0.00 | 99 | 1000.5 |
| 20260505121301 | 21 | 219 | 0.0 | 3.2 | 0.00 | 0.00 | 0.00 | 99 | 1000.6 |
| 20260505121200 | 21 | 186 | 0.0 | 3.2 | 0.00 | 0.00 | 0.00 | 99 | 1000.6 |
| 20260505121055 | 21 | 190 | 0.0 | 3.2 | 0.00 | 0.00 | 0.00 | 99 | 1000.6 |
| 20260505120952 | 21 | 209 | 0.0 | 3.2 | 0.00 | 0.00 | 0.00 | 99 | 1000.7 |
| 20260505120849 | 21 | 209 | 0.0 | 3.2 | 0.00 | 0.00 | 0.00 | 99 | 1000.7 |
| 20260505120744 | 21 | 209 | 0.0 | 3.2 | 0.00 | 0.00 | 0.00 | 99 | 1000.7 |
| 20260505120636 | 21 | 209 | 0.0 | 3.2 | 0.00 | 0.00 | 0.00 | 99 | 1000.7 |
| 20260505120535 | 21 | 209 | 0.0 | 3.2 | 0.00 | 0.00 | 0.00 | 99 | 1000.7 |
| 20260505120432 | 21 | 209 | 0.0 | 3.2 | 0.00 | 0.00 | 0.00 | 99 | 1000.6 |
| 20260505120332 | 21 | 209 | 0.0 | 3.2 | 0.00 | 0.00 | 0.00 | 99 | 1000.5 |
| 20260505120231 | 21 | 207 | 0.0 | 3.2 | 0.00 | 0.00 | 0.00 | 99 | 1000.5 |
| 20260505120131 | 21 | 169 | 1.6 | 3.2 | 0.00 | 0.00 | 0.00 | 99 | 1000.5 |
| 20260505120032 | 21 | 137 | 1.6 | 3.2 | 0.00 | 0.00 | 0.00 | 99 | 1000.4 |
| 20260505115932 | 21 | 0 | 0.0 | 3.2 | 0.00 | 0.00 | 0.00 | 99 | 1000.4 |
| 20260505115832 | 21 | 302 | 0.0 | 3.2 | 0.00 | 0.00 | 0.00 | 99 | 1000.5 |
| 20260505115732 | 21 | 302 | 0.0 | 3.2 | 0.00 | 0.00 | 0.00 | 99 | 1000.5 |
| 20260505115632 | 21 | 302 | 0.0 | 6.4 | 0.00 | 0.00 | 0.00 | 99 | 1000.5 |
| 20260505115532 | 21 | 302 | 0.0 | 6.4 | 0.00 | 0.00 | 0.00 | 99 | 1000.5 |
| 20260505115431 | 21 | 302 | 0.0 | 6.4 | 0.00 | 0.00 | 0.00 | 99 | 1000.5 |
| 20260505115333 | 21 | 302 | 0.0 | 6.4 | 0.00 | 0.00 | 0.00 | 99 | 1000.5 |
| 20260505115232 | 21 | 302 | 0.0 | 6.4 | 0.00 | 0.00 | 0.00 | 99 | 1000.4 |
| 20260505115132 | 21 | 302 | 0.0 | 6.4 | 0.00 | 0.00 | 0.00 | 99 | 1000.4 |
| 20260505115028 | 21 | 305 | 0.0 | 6.4 | 0.00 | 0.00 | 0.00 | 99 | 1000.3 |
| 20260505114924 | 21 | 189 | 0.0 | 6.4 | 0.00 | 0.00 | 0.00 | 99 | 1000.3 |
| 20260505114823 | 21 | 189 | 0.0 | 6.4 | 0.00 | 0.00 | 0.00 | 99 | 1000.2 |
| 20260505114721 | 21 | 190 | 0.0 | 6.4 | 0.00 | 0.00 | 0.00 | 99 | 1000.3 |
| 20260505114622 | 21 | 147 | 0.0 | 6.4 | 0.00 | 0.00 | 0.00 | 99 | 1000.3 |
| 20260505114522 | 21 | 147 | 0.0 | 6.4 | 0.00 | 0.00 | 0.00 | 99 | 1000.3 |
| 20260505114423 | 21 | 147 | 1.6 | 6.4 | 0.00 | 0.00 | 0.00 | 98 | 1000.4 |
| 20260505114323 | 21 | 147 | 1.6 | 6.4 | 0.00 | 0.00 | 0.00 | 98 | 1000.3 |
| 20260505114224 | 21 | 168 | 0.0 | 0.0 | 0.00 | 0.00 | 0.00 | 98 | 1000.3 |
| 20260505114125 | 21 | 168 | 0.0 | 1.6 | 0.00 | 0.00 | 0.00 | 98 | 1000.4 |
| 20260505114022 | 21 | 168 | 0.0 | 1.6 | 0.00 | 0.00 | 0.00 | 98 | 1000.4 |
| 20260505113921 | 21 | 213 | 0.0 | 1.6 | 0.00 | 0.00 | 0.00 | 98 | 1000.4 |
| 20260505113823 | 21 | 219 | 0.0 | 1.6 | 0.00 | 0.00 | 0.00 | 98 | 1000.5 |
| 20260505113721 | 21 | 219 | 0.0 | 1.6 | 0.00 | 0.00 | 0.00 | 99 | 1000.3 |
| 20260505113623 | 21 | 219 | 0.0 | 1.6 | 0.00 | 0.00 | 0.00 | 99 | 1000.4 |
| 20260505113522 | 21 | 219 | 0.0 | 1.6 | 0.00 | 0.00 | 0.00 | 99 | 1000.3 |
| 20260505113422 | 21 | 219 | 0.0 | 1.6 | 0.00 | 0.00 | 0.00 | 98 | 1000.3 |
| 20260505113322 | 21 | 245 | 0.0 | 1.6 | 0.00 | 0.00 | 0.00 | 98 | 1000.2 |
| 20260505113222 | 21 | 245 | 0.0 | 1.6 | 0.00 | 0.00 | 0.00 | 98 | 1000.1 |
| 20260505113121 | 21 | 244 | 0.0 | 1.6 | 0.00 | 0.00 | 0.00 | 98 | 1000.2 |
| 20260505113022 | 21 | 258 | 0.0 | 1.6 | 0.00 | 0.00 | 0.00 | 99 | 1000.2 |
| 20260505112922 | 21 | 258 | 0.0 | 1.6 | 0.00 | 0.00 | 0.00 | 99 | 1000.3 |
| 20260505112821 | 21 | 258 | 0.0 | 1.6 | 0.00 | 0.00 | 0.00 | 99 | 1000.3 |
| 20260505112724 | 21 | 258 | 0.0 | 1.6 | 0.00 | 0.00 | 0.00 | 99 | 1000.3 |
| 20260505112623 | 21 | 259 | 0.0 | 1.6 | 0.00 | 0.00 | 0.00 | 98 | 1000.3 |
| 20260505112521 | 21 | 265 | 0.0 | 1.6 | 0.00 | 0.00 | 0.00 | 98 | 1000.3 |
| 20260505112422 | 21 | 87 | 0.0 | 0.0 | 0.00 | 0.00 | 0.00 | 99 | 1000.4 |
| 20260505112322 | 21 | 87 | 0.0 | 0.0 | 0.00 | 0.00 | 0.00 | 99 | 1000.5 |
| 20260505112221 | 21 | 148 | 0.0 | 0.0 | 0.00 | 0.00 | 0.00 | 99 | 1000.5 |
| 20260505112123 | 21 | 148 | 0.0 | 0.0 | 0.00 | 0.00 | 0.00 | 99 | 1000.6 |
| 20260505112023 | 21 | 255 | 0.0 | 0.0 | 0.00 | 0.00 | 0.00 | 99 | 1000.6 |
| 20260505111921 | 21 | 255 | 0.0 | 0.0 | 0.00 | 0.00 | 0.00 | 98 | 1000.6 |
| 20260505111822 | 21 | 255 | 0.0 | 0.0 | 0.00 | 0.00 | 0.00 | 98 | 1000.6 |
| 20260505111723 | 21 | 255 | 0.0 | 0.0 | 0.00 | 0.00 | 0.00 | 98 | 1000.6 |
| 20260505111621 | 21 | 255 | 0.0 | 0.0 | 0.00 | 0.00 | 0.00 | 99 | 1000.6 |
| 20260505111523 | 21 | 255 | 0.0 | 0.0 | 0.00 | 0.00 | 0.00 | 98 | 1000.6 |
| 20260505111421 | 21 | 255 | 0.0 | 0.0 | 0.00 | 0.00 | 0.00 | 98 | 1000.5 |
| 20260505111321 | 21 | 255 | 0.0 | 0.0 | 0.00 | 0.00 | 0.00 | 98 | 1000.5 |
| 20260505111222 | 21 | 212 | 0.0 | 0.0 | 0.00 | 0.00 | 0.00 | 98 | 1000.6 |
| 20260505111122 | 21 | 212 | 0.0 | 0.0 | 0.00 | 0.00 | 0.00 | 98 | 1000.5 |
| 20260505111020 | 21 | 212 | 0.0 | 0.0 | 0.00 | 0.00 | 0.00 | 98 | 1000.5 |
| 20260505110921 | 21 | 212 | 0.0 | 0.0 | 0.00 | 0.00 | 0.00 | 98 | 1000.6 |
| 20260505110822 | 21 | 213 | 0.0 | 0.0 | 0.00 | 0.00 | 0.00 | 98 | 1000.6 |
| 20260505110722 | 21 | 213 | 0.0 | 0.0 | 0.00 | 0.00 | 0.00 | 98 | 1000.6 |
| 20260505110621 | 21 | 213 | 0.0 | 0.0 | 0.00 | 0.00 | 0.00 | 98 | 1000.5 |
| 20260505110521 | 21 | 213 | 0.0 | 0.0 | 0.00 | 0.00 | 0.00 | 98 | 1000.5 |
| 20260505110421 | 21 | 213 | 0.0 | 0.0 | 0.00 | 0.00 | 0.00 | 98 | 1000.4 |
| 20260505110325 | 21 | 213 | 0.0 | 0.0 | 0.00 | 0.00 | 0.00 | 98 | 1000.5 |
| 20260505110222 | 21 | 213 | 0.0 | 0.0 | 0.00 | 0.00 | 0.00 | 98 | 1000.4 |
| 20260505110121 | 21 | 213 | 0.0 | 0.0 | 0.00 | 0.00 | 0.00 | 98 | 1000.4 |
| 20260505102221 | 20 | 214 | 0.0 | 3.2 | 0.00 | 0.00 | 0.00 | 98 | 1000.5 |
| 20260505102121 | 20 | 213 | 0.0 | 3.2 | 0.00 | 0.00 | 0.00 | 98 | 1000.5 |
| 20260505102020 | 20 | 172 | 0.0 | 3.2 | 0.00 | 0.00 | 0.00 | 98 | 1000.6 |
| 20260505101920 | 20 | 172 | 0.0 | 3.2 | 0.00 | 0.00 | 0.00 | 98 | 1000.6 |
| 20260505101821 | 20 | 172 | 0.0 | 3.2 | 0.00 | 0.00 | 0.00 | 98 | 1000.6 |
| 20260505101719 | 20 | 171 | 0.0 | 3.2 | 0.00 | 0.00 | 0.00 | 98 | 1000.6 |
| 20260505101619 | 20 | 179 | 0.0 | 3.2 | 0.00 | 0.00 | 0.00 | 98 | 1000.6 |
| 20260505101521 | 20 | 173 | 0.0 | 1.6 | 0.00 | 0.00 | 0.00 | 98 | 1000.6 |
| 20260505101422 | 20 | 173 | 0.0 | 1.6 | 0.00 | 0.00 | 0.00 | 98 | 1000.6 |
| 20260505101320 | 20 | 149 | 0.0 | 1.6 | 0.00 | 0.00 | 0.00 | 98 | 1000.7 |
| 20260505101222 | 20 | 149 | 0.0 | 1.6 | 0.00 | 0.00 | 0.00 | 98 | 1000.5 |
| 20260505101121 | 20 | 149 | 0.0 | 1.6 | 0.00 | 0.00 | 0.00 | 98 | 1000.6 |
| 20260505101019 | 20 | 149 | 0.0 | 1.6 | 0.00 | 0.00 | 0.00 | 98 | 1000.6 |
| 20260505100904 | 20 | 148 | 0.0 | 1.6 | 0.00 | 0.00 | 0.00 | 98 | 1000.6 |
| 20260505100802 | 20 | 151 | 0.0 | 1.6 | 0.00 | 0.00 | 0.00 | 98 | 1000.5 |
| 20260505100703 | 20 | 151 | 0.0 | 1.6 | 0.00 | 0.00 | 0.00 | 98 | 1000.4 |
| 20260505100603 | 20 | 244 | 0.0 | 1.6 | 0.00 | 0.00 | 0.00 | 97 | 1000.4 |
| 20260505100505 | 20 | 224 | 0.0 | 1.6 | 0.00 | 0.00 | 0.00 | 97 | 1000.5 |
| 20260505100403 | 20 | 224 | 0.0 | 1.6 | 0.00 | 0.00 | 0.00 | 97 | 1000.5 |
| 20260505100302 | 20 | 228 | 0.0 | 1.6 | 0.00 | 0.00 | 0.00 | 97 | 1000.5 |
| 20260505100204 | 20 | 216 | 0.0 | 1.6 | 0.00 | 0.00 | 0.00 | 97 | 1000.4 |
| 20260505100110 | 20 | 213 | 0.0 | 1.6 | 0.00 | 0.00 | 0.00 | 97 | 1000.4 |
| 20260505100002 | 20 | 202 | 0.0 | 1.6 | 0.00 | 0.00 | 0.00 | 97 | 1000.4 |
| 20260505095902 | 20 | 202 | 0.0 | 1.6 | 0.00 | 0.00 | 0.00 | 97 | 1000.3 |
| 20260505095803 | 20 | 202 | 0.0 | 1.6 | 0.00 | 0.00 | 0.00 | 97 | 1000.4 |
| 20260505095702 | 20 | 202 | 0.0 | 1.6 | 0.00 | 0.00 | 0.00 | 97 | 1000.4 |
| 20260505095602 | 20 | 202 | 0.0 | 1.6 | 0.00 | 0.00 | 0.00 | 97 | 1000.4 |
| 20260505095504 | 20 | 207 | 0.0 | 1.6 | 0.00 | 0.00 | 0.00 | 97 | 1000.5 |
| 20260505095404 | 20 | 207 | 0.0 | 1.6 | 0.00 | 0.00 | 0.00 | 97 | 1000.5 |
| 20260505095257 | 20 | 206 | 0.0 | 1.6 | 0.00 | 0.00 | 0.00 | 97 | 1000.4 |
| 20260505095157 | 20 | 206 | 0.0 | 1.6 | 0.00 | 0.00 | 0.00 | 97 | 1000.4 |
| 20260505095050 | 20 | 207 | 0.0 | 0.0 | 0.00 | 0.00 | 0.00 | 97 | 1000.5 |
| 20260505094945 | 20 | 207 | 0.0 | 0.0 | 0.00 | 0.00 | 0.00 | 97 | 1000.5 |
| 20260505094841 | 20 | 207 | 0.0 | 0.0 | 0.00 | 0.00 | 0.00 | 97 | 1000.5 |
| 20260505094737 | 20 | 207 | 0.0 | 3.2 | 0.00 | 0.00 | 0.00 | 97 | 1000.6 |
| 20260505094632 | 20 | 207 | 0.0 | 3.2 | 0.00 | 0.00 | 0.00 | 97 | 1000.6 |
| 20260505094532 | 20 | 207 | 0.0 | 3.2 | 0.00 | 0.00 | 0.00 | 97 | 1000.6 |
| 20260505094431 | 20 | 207 | 0.0 | 3.2 | 0.00 | 0.00 | 0.00 | 97 | 1000.6 |
| 20260505094332 | 20 | 207 | 0.0 | 3.2 | 0.00 | 0.00 | 0.00 | 97 | 1000.7 |
| 20260505094232 | 20 | 207 | 0.0 | 3.2 | 0.00 | 0.00 | 0.00 | 97 | 1000.6 |
| 20260505094131 | 20 | 207 | 0.0 | 3.2 | 0.00 | 0.00 | 0.00 | 97 | 1000.6 |
| 20260505094033 | 20 | 230 | 0.0 | 3.2 | 0.00 | 0.00 | 0.00 | 97 | 1000.6 |
| 20260505093927 | 20 | 230 | 0.0 | 3.2 | 0.00 | 0.00 | 0.00 | 97 | 1000.6 |
| 20260505093824 | 20 | 230 | 0.0 | 3.2 | 0.00 | 0.00 | 0.00 | 97 | 1000.6 |
| 20260505093719 | 20 | 202 | 0.0 | 0.0 | 0.00 | 0.00 | 0.00 | 97 | 1000.6 |
| 20260505093619 | 20 | 202 | 0.0 | 0.0 | 0.00 | 0.00 | 0.00 | 97 | 1000.6 |
| 20260505093519 | 20 | 202 | 0.0 | 0.0 | 0.00 | 0.00 | 0.00 | 97 | 1000.6 |
| 20260505093418 | 20 | 265 | 0.0 | 0.0 | 0.00 | 0.00 | 0.00 | 97 | 1000.6 |
| 20260505093318 | 20 | 265 | 0.0 | 0.0 | 0.00 | 0.00 | 0.00 | 97 | 1000.6 |
| 20260505093221 | 20 | 190 | 0.0 | 0.0 | 0.00 | 0.00 | 0.00 | 97 | 1000.5 |
| 20260505093113 | 20 | 190 | 0.0 | 0.0 | 0.00 | 0.00 | 0.00 | 97 | 1000.6 |
| 20260505093012 | 20 | 190 | 0.0 | 0.0 | 0.00 | 0.00 | 0.00 | 97 | 1000.6 |
| 20260505092905 | 20 | 178 | 0.0 | 0.0 | 0.00 | 0.00 | 0.00 | 97 | 1000.6 |
| 20260505092803 | 20 | 176 | 0.0 | 0.0 | 0.00 | 0.00 | 0.00 | 97 | 1000.6 |
| 20260505092704 | 20 | 176 | 0.0 | 0.0 | 0.00 | 0.00 | 0.00 | 97 | 1000.6 |
| 20260505092604 | 20 | 176 | 0.0 | 1.6 | 0.00 | 0.00 | 0.00 | 97 | 1000.6 |
| 20260505092502 | 20 | 176 | 0.0 | 1.6 | 0.00 | 0.00 | 0.00 | 97 | 1000.6 |
| 20260505092404 | 20 | 176 | 0.0 | 1.6 | 0.00 | 0.00 | 0.00 | 97 | 1000.6 |
| 20260505092305 | 20 | 176 | 0.0 | 1.6 | 0.00 | 0.00 | 0.00 | 97 | 1000.6 |
| 20260505092202 | 20 | 178 | 0.0 | 1.6 | 0.00 | 0.00 | 0.00 | 97 | 1000.6 |
| 20260505092103 | 20 | 176 | 0.0 | 1.6 | 0.00 | 0.00 | 0.00 | 97 | 1000.6 |
| 20260505092004 | 20 | 176 | 0.0 | 1.6 | 0.00 | 0.00 | 0.00 | 97 | 1000.6 |
| 20260505091903 | 20 | 176 | 0.0 | 1.6 | 0.00 | 0.00 | 0.00 | 97 | 1000.7 |
| 20260505091804 | 20 | 176 | 0.0 | 1.6 | 0.00 | 0.00 | 0.00 | 97 | 1000.7 |
| 20260505091703 | 20 | 176 | 0.0 | 1.6 | 0.00 | 0.00 | 0.00 | 96 | 1000.7 |
| 20260505091603 | 20 | 176 | 0.0 | 1.6 | 0.00 | 0.00 | 0.00 | 96 | 1000.8 |
| 20260505091504 | 20 | 210 | 0.0 | 1.6 | 0.00 | 0.00 | 0.00 | 96 | 1000.8 |
| 20260505091404 | 20 | 197 | 0.0 | 0.0 | 0.00 | 0.00 | 0.00 | 96 | 1000.8 |
| 20260505091304 | 20 | 197 | 0.0 | 1.6 | 0.00 | 0.00 | 0.00 | 96 | 1000.8 |
| 20260505091203 | 20 | 197 | 0.0 | 1.6 | 0.00 | 0.00 | 0.00 | 96 | 1000.8 |
| 20260505091104 | 20 | 197 | 0.0 | 1.6 | 0.00 | 0.00 | 0.00 | 96 | 1000.8 |
| 20260505091002 | 20 | 196 | 0.0 | 1.6 | 0.00 | 0.00 | 0.00 | 96 | 1000.9 |
| 20260505090903 | 20 | 196 | 0.0 | 1.6 | 0.00 | 0.00 | 0.00 | 96 | 1000.9 |
| 20260505090804 | 20 | 196 | 0.0 | 1.6 | 0.00 | 0.00 | 0.00 | 96 | 1001.0 |
| 20260505090703 | 20 | 196 | 0.0 | 1.6 | 0.00 | 0.00 | 0.00 | 96 | 1000.9 |
| 20260505090603 | 20 | 196 | 0.0 | 1.6 | 0.00 | 0.00 | 0.00 | 96 | 1001.0 |
| 20260505090505 | 20 | 196 | 0.0 | 1.6 | 0.00 | 0.00 | 0.00 | 96 | 1000.9 |
| 20260505090402 | 20 | 196 | 0.0 | 1.6 | 0.00 | 0.00 | 0.00 | 96 | 1000.9 |
| 20260505090304 | 20 | 188 | 0.0 | 1.6 | 0.00 | 0.00 | 0.00 | 96 | 1001.0 |
| 20260505090204 | 20 | 188 | 0.0 | 1.6 | 0.00 | 0.00 | 0.00 | 96 | 1000.9 |
| 20260505090105 | 20 | 188 | 0.0 | 1.6 | 0.00 | 0.00 | 0.00 | 96 | 1000.9 |
| 20260505090002 | 20 | 192 | 0.0 | 1.6 | 0.00 | 0.00 | 0.00 | 96 | 1000.9 |
| 20260505085904 | 20 | 216 | 0.0 | 0.0 | 0.00 | 0.00 | 0.00 | 96 | 1000.9 |
| 20260505085804 | 20 | 216 | 0.0 | 0.0 | 0.00 | 0.00 | 0.00 | 96 | 1000.9 |
| 20260505085658 | 20 | 217 | 0.0 | 0.0 | 0.00 | 0.00 | 0.00 | 96 | 1000.9 |
| 20260505085550 | 20 | 220 | 0.0 | 0.0 | 0.00 | 0.00 | 0.00 | 96 | 1000.9 |
| 20260505085439 | 20 | 220 | 0.0 | 0.0 | 0.00 | 0.00 | 0.00 | 96 | 1000.9 |
| 20260505085330 | 20 | 220 | 0.0 | 0.0 | 0.00 | 0.00 | 0.00 | 96 | 1000.9 |
| 20260505085231 | 20 | 220 | 0.0 | 0.0 | 0.00 | 0.00 | 0.00 | 96 | 1001.0 |
| 20260505085132 | 20 | 219 | 0.0 | 0.0 | 0.00 | 0.00 | 0.00 | 96 | 1001.0 |
| 20260505085034 | 20 | 219 | 0.0 | 0.0 | 0.00 | 0.00 | 0.00 | 96 | 1001.0 |
| 20260505084931 | 20 | 219 | 0.0 | 1.6 | 0.00 | 0.00 | 0.00 | 96 | 1000.9 |
| 20260505084834 | 20 | 219 | 0.0 | 1.6 | 0.00 | 0.00 | 0.00 | 96 | 1001.0 |
| 20260505084732 | 20 | 219 | 0.0 | 1.6 | 0.00 | 0.00 | 0.00 | 96 | 1000.9 |
| 20260505084631 | 20 | 233 | 0.0 | 1.6 | 0.00 | 0.00 | 0.00 | 96 | 1000.9 |
| 20260505084532 | 20 | 233 | 0.0 | 1.6 | 0.00 | 0.00 | 0.00 | 96 | 1001.0 |
| 20260505084432 | 20 | 233 | 0.0 | 1.6 | 0.00 | 0.00 | 0.00 | 96 | 1000.9 |
| 20260505084331 | 20 | 230 | 0.0 | 1.6 | 0.00 | 0.00 | 0.00 | 96 | 1000.9 |
| 20260505084223 | 20 | 230 | 0.0 | 1.6 | 0.00 | 0.00 | 0.00 | 96 | 1000.9 |
| 20260505084119 | 20 | 230 | 0.0 | 1.6 | 0.00 | 0.00 | 0.00 | 96 | 1001.0 |
| 20260505084019 | 20 | 230 | 0.0 | 1.6 | 0.00 | 0.00 | 0.00 | 96 | 1000.9 |
| 20260505083917 | 20 | 275 | 0.0 | 0.0 | 0.00 | 0.00 | 0.00 | 96 | 1000.9 |
| 20260505083817 | 20 | 275 | 0.0 | 0.0 | 0.00 | 0.00 | 0.00 | 96 | 1001.0 |
| 20260505083717 | 20 | 275 | 0.0 | 0.0 | 0.00 | 0.00 | 0.00 | 96 | 1001.0 |
| 20260505083618 | 20 | 275 | 0.0 | 0.0 | 0.00 | 0.00 | 0.00 | 96 | 1000.9 |
| 20260505083517 | 20 | 275 | 0.0 | 0.0 | 0.00 | 0.00 | 0.00 | 96 | 1001.0 |
| 20260505083418 | 20 | 275 | 0.0 | 0.0 | 0.00 | 0.00 | 0.00 | 96 | 1001.0 |
| 20260505083318 | 20 | 275 | 0.0 | 0.0 | 0.00 | 0.00 | 0.00 | 96 | 1001.1 |
| 20260505083217 | 20 | 275 | 0.0 | 0.0 | 0.00 | 0.00 | 0.00 | 96 | 1001.0 |
| 20260505083119 | 20 | 275 | 0.0 | 0.0 | 0.00 | 0.00 | 0.00 | 96 | 1000.9 |
| 20260505083019 | 20 | 275 | 0.0 | 0.0 | 0.00 | 0.00 | 0.00 | 96 | 1001.0 |
| 20260505082918 | 20 | 275 | 0.0 | 0.0 | 0.00 | 0.00 | 0.00 | 96 | 1001.0 |
| 20260505082817 | 20 | 275 | 0.0 | 0.0 | 0.00 | 0.00 | 0.00 | 96 | 1001.0 |
| 20260505082718 | 20 | 275 | 0.0 | 0.0 | 0.00 | 0.00 | 0.00 | 96 | 1001.0 |
| 20260505082617 | 20 | 275 | 0.0 | 0.0 | 0.00 | 0.00 | 0.00 | 96 | 1001.0 |
| 20260505082517 | 20 | 120 | 0.0 | 0.0 | 0.00 | 0.00 | 0.00 | 96 | 1001.0 |
| 20260505082420 | 20 | 120 | 0.0 | 0.0 | 0.00 | 0.00 | 0.00 | 96 | 1001.0 |
| 20260505082320 | 20 | 120 | 0.0 | 0.0 | 0.00 | 0.00 | 0.00 | 96 | 1001.1 |
| 20260505082217 | 20 | 120 | 0.0 | 0.0 | 0.00 | 0.00 | 0.00 | 96 | 1001.1 |
| 20260505082119 | 20 | 120 | 0.0 | 0.0 | 0.00 | 0.00 | 0.00 | 96 | 1001.1 |
| 20260505082019 | 20 | 120 | 0.0 | 0.0 | 0.00 | 0.00 | 0.00 | 96 | 1001.1 |
| 20260505081917 | 20 | 120 | 0.0 | 0.0 | 0.00 | 0.00 | 0.00 | 96 | 1001.1 |
| 20260505081817 | 20 | 120 | 0.0 | 0.0 | 0.00 | 0.00 | 0.00 | 95 | 1001.2 |
| 20260505081717 | 20 | 120 | 0.0 | 0.0 | 0.00 | 0.00 | 0.00 | 95 | 1001.2 |
| 20260505081617 | 20 | 120 | 0.0 | 3.2 | 0.00 | 0.00 | 0.00 | 95 | 1001.2 |
| 20260505081517 | 20 | 120 | 0.0 | 3.2 | 0.00 | 0.00 | 0.00 | 96 | 1001.2 |
| 20260505081419 | 20 | 120 | 0.0 | 3.2 | 0.00 | 0.00 | 0.00 | 96 | 1001.2 |
| 20260505081318 | 20 | 120 | 0.0 | 3.2 | 0.00 | 0.00 | 0.00 | 95 | 1001.2 |
| 20260505081218 | 20 | 120 | 0.0 | 3.2 | 0.00 | 0.00 | 0.00 | 95 | 1001.2 |
| 20260505081117 | 20 | 120 | 0.0 | 3.2 | 0.00 | 0.00 | 0.00 | 95 | 1001.2 |
| 20260505081017 | 20 | 120 | 0.0 | 3.2 | 0.00 | 0.00 | 0.00 | 95 | 1001.2 |
| 20260505080918 | 20 | 120 | 0.0 | 3.2 | 0.00 | 0.00 | 0.00 | 96 | 1001.1 |
| 20260505080817 | 20 | 120 | 0.0 | 3.2 | 0.00 | 0.00 | 0.00 | 95 | 1001.1 |
| 20260505080718 | 20 | 120 | 0.0 | 3.2 | 0.00 | 0.00 | 0.00 | 95 | 1001.2 |
| 20260505080617 | 20 | 235 | 0.0 | 0.0 | 0.00 | 0.00 | 0.00 | 95 | 1001.2 |
| 20260505080525 | 20 | 235 | 0.0 | 0.0 | 0.00 | 0.00 | 0.00 | 95 | 1001.2 |
| 20260505080417 | 20 | 235 | 0.0 | 0.0 | 0.00 | 0.00 | 0.00 | 95 | 1001.2 |
| 20260505080317 | 20 | 235 | 0.0 | 0.0 | 0.00 | 0.00 | 0.00 | 95 | 1001.2 |
| 20260505080219 | 20 | 235 | 0.0 | 0.0 | 0.00 | 0.00 | 0.00 | 95 | 1001.3 |
| 20260505080118 | 20 | 235 | 0.0 | 0.0 | 0.00 | 0.00 | 0.00 | 95 | 1001.3 |
| 20260505080016 | 20 | 235 | 0.0 | 0.0 | 0.00 | 0.00 | 0.00 | 95 | 1001.3 |
| 20260505075917 | 20 | 243 | 0.0 | 0.0 | 0.00 | 0.00 | 0.00 | 95 | 1001.3 |
| 20260505075817 | 20 | 243 | 0.0 | 0.0 | 0.00 | 0.00 | 0.00 | 95 | 1001.2 |
| 20260505075717 | 20 | 243 | 0.0 | 0.0 | 0.00 | 0.00 | 0.00 | 95 | 1001.3 |
| 20260505075619 | 20 | 185 | 0.0 | 0.0 | 0.00 | 0.00 | 0.00 | 95 | 1001.3 |
| 20260505075518 | 20 | 185 | 0.0 | 0.0 | 0.00 | 0.00 | 0.00 | 95 | 1001.3 |
| 20260505075417 | 20 | 185 | 0.0 | 0.0 | 0.00 | 0.00 | 0.00 | 95 | 1001.3 |
| 20260505075318 | 20 | 185 | 0.0 | 0.0 | 0.00 | 0.00 | 0.00 | 95 | 1001.3 |
| 20260505075216 | 20 | 185 | 0.0 | 0.0 | 0.00 | 0.00 | 0.00 | 95 | 1001.5 |
| 20260505075117 | 20 | 185 | 0.0 | 0.0 | 0.00 | 0.00 | 0.00 | 95 | 1001.5 |
| 20260505075016 | 20 | 185 | 0.0 | 0.0 | 0.00 | 0.00 | 0.00 | 95 | 1001.5 |
| 20260505074917 | 20 | 190 | 0.0 | 0.0 | 0.00 | 0.00 | 0.00 | 95 | 1001.4 |
| 20260505074818 | 20 | 190 | 0.0 | 0.0 | 0.00 | 0.00 | 0.00 | 95 | 1001.4 |
| 20260505074716 | 20 | 190 | 0.0 | 0.0 | 0.00 | 0.00 | 0.00 | 95 | 1001.5 |
| 20260505074616 | 20 | 190 | 0.0 | 0.0 | 0.00 | 0.00 | 0.00 | 95 | 1001.5 |
| 20260505074517 | 20 | 190 | 0.0 | 0.0 | 0.00 | 0.00 | 0.00 | 95 | 1001.5 |
| 20260505074416 | 20 | 190 | 0.0 | 0.0 | 0.00 | 0.00 | 0.00 | 95 | 1001.5 |
| 20260505074316 | 20 | 190 | 0.0 | 0.0 | 0.00 | 0.00 | 0.00 | 95 | 1001.4 |
| 20260505074218 | 20 | 190 | 0.0 | 0.0 | 0.00 | 0.00 | 0.00 | 95 | 1001.5 |
| 20260505074116 | 20 | 189 | 0.0 | 0.0 | 0.00 | 0.00 | 0.00 | 95 | 1001.5 |
| 20260505074018 | 20 | 189 | 0.0 | 0.0 | 0.00 | 0.00 | 0.00 | 95 | 1001.5 |
| 20260505073919 | 20 | 189 | 0.0 | 0.0 | 0.00 | 0.00 | 0.00 | 95 | 1001.4 |
| 20260505073813 | 20 | 189 | 0.0 | 0.0 | 0.00 | 0.00 | 0.00 | 95 | 1001.6 |
| 20260505073711 | 20 | 190 | 0.0 | 0.0 | 0.00 | 0.00 | 0.00 | 95 | 1001.6 |
| 20260505073609 | 20 | 190 | 0.0 | 0.0 | 0.00 | 0.00 | 0.00 | 95 | 1001.6 |
| 20260505073507 | 20 | 190 | 0.0 | 1.6 | 0.00 | 0.00 | 0.00 | 95 | 1001.5 |
| 20260505073404 | 20 | 190 | 0.0 | 1.6 | 0.00 | 0.00 | 0.00 | 95 | 1001.5 |
| 20260505073305 | 20 | 189 | 0.0 | 1.6 | 0.00 | 0.00 | 0.00 | 95 | 1001.6 |
| 20260505073202 | 20 | 189 | 0.0 | 1.6 | 0.00 | 0.00 | 0.00 | 95 | 1001.5 |
| 20260505073059 | 20 | 189 | 0.0 | 1.6 | 0.00 | 0.00 | 0.00 | 95 | 1001.5 |
| 20260505072955 | 20 | 189 | 0.0 | 1.6 | 0.00 | 0.00 | 0.00 | 95 | 1001.5 |
| 20260505072853 | 20 | 189 | 0.0 | 1.6 | 0.00 | 0.00 | 0.00 | 95 | 1001.5 |
| 20260505072751 | 20 | 189 | 0.0 | 1.6 | 0.00 | 0.00 | 0.00 | 95 | 1001.6 |
| 20260505072646 | 20 | 189 | 0.0 | 1.6 | 0.00 | 0.00 | 0.00 | 95 | 1001.6 |
| 20260505072538 | 20 | 189 | 0.0 | 1.6 | 0.00 | 0.00 | 0.00 | 95 | 1001.6 |
| 20260505072432 | 20 | 185 | 0.0 | 1.6 | 0.00 | 0.00 | 0.00 | 95 | 1001.5 |
| 20260505072328 | 20 | 185 | 0.0 | 1.6 | 0.00 | 0.00 | 0.00 | 95 | 1001.6 |
| 20260505072227 | 20 | 188 | 0.0 | 1.6 | 0.00 | 0.00 | 0.00 | 95 | 1001.6 |
| 20260505072116 | 20 | 188 | 0.0 | 1.6 | 0.00 | 0.00 | 0.00 | 95 | 1001.6 |
| 20260505072016 | 20 | 188 | 0.0 | 1.6 | 0.00 | 0.00 | 0.00 | 95 | 1001.5 |
| 20260505071917 | 20 | 188 | 0.0 | 1.6 | 0.00 | 0.00 | 0.00 | 95 | 1001.5 |
| 20260505071815 | 20 | 188 | 0.0 | 1.6 | 0.00 | 0.00 | 0.00 | 95 | 1001.6 |
| 20260505071717 | 20 | 185 | 0.0 | 0.0 | 0.00 | 0.00 | 0.00 | 95 | 1001.6 |
| 20260505071615 | 20 | 185 | 0.0 | 0.0 | 0.00 | 0.00 | 0.00 | 95 | 1001.6 |
| 20260505071515 | 20 | 185 | 0.0 | 0.0 | 0.00 | 0.00 | 0.00 | 95 | 1001.7 |
| 20260505071417 | 20 | 185 | 0.0 | 0.0 | 0.00 | 0.00 | 0.00 | 95 | 1001.7 |
| 20260505071315 | 20 | 185 | 0.0 | 0.0 | 0.00 | 0.00 | 0.00 | 95 | 1001.7 |
| 20260505071218 | 20 | 185 | 0.0 | 0.0 | 0.00 | 0.00 | 0.00 | 95 | 1001.8 |
| 20260505071115 | 20 | 185 | 0.0 | 1.6 | 0.00 | 0.00 | 0.00 | 95 | 1001.7 |
| 20260505071016 | 20 | 185 | 0.0 | 1.6 | 0.00 | 0.00 | 0.00 | 95 | 1001.8 |
| 20260505070915 | 20 | 185 | 0.0 | 1.6 | 0.00 | 0.00 | 0.00 | 95 | 1001.8 |
| 20260505070816 | 20 | 183 | 0.0 | 1.6 | 0.00 | 0.00 | 0.00 | 95 | 1001.8 |
| 20260505070716 | 20 | 183 | 0.0 | 1.6 | 0.00 | 0.00 | 0.00 | 95 | 1001.8 |
| 20260505070615 | 20 | 183 | 0.0 | 1.6 | 0.00 | 0.00 | 0.00 | 95 | 1001.8 |
| 20260505070516 | 20 | 183 | 0.0 | 1.6 | 0.00 | 0.00 | 0.00 | 95 | 1001.8 |
| 20260505070415 | 20 | 172 | 0.0 | 1.6 | 0.00 | 0.00 | 0.00 | 95 | 1001.9 |
| 20260505070316 | 20 | 172 | 0.0 | 1.6 | 0.00 | 0.00 | 0.00 | 95 | 1001.9 |
| 20260505070216 | 20 | 172 | 0.0 | 1.6 | 0.00 | 0.00 | 0.00 | 95 | 1001.9 |
| 20260505070115 | 20 | 169 | 0.0 | 1.6 | 0.00 | 0.00 | 0.00 | 95 | 1001.9 |
| 20260505070016 | 20 | 169 | 0.0 | 1.6 | 0.00 | 0.00 | 0.00 | 95 | 1001.8 |
| 20260505065916 | 20 | 169 | 0.0 | 1.6 | 0.00 | 0.00 | 0.00 | 95 | 1001.9 |
| 20260505065816 | 20 | 169 | 0.0 | 1.6 | 0.00 | 0.00 | 0.00 | 95 | 1001.9 |
| 20260505065715 | 20 | 262 | 0.0 | 1.6 | 0.00 | 0.00 | 0.00 | 95 | 1001.8 |
| 20260505065615 | 20 | 261 | 0.0 | 1.6 | 0.00 | 0.00 | 0.00 | 95 | 1001.9 |
| 20260505065515 | 20 | 261 | 0.0 | 1.6 | 0.00 | 0.00 | 0.00 | 95 | 1001.9 |
| 20260505065419 | 20 | 261 | 0.0 | 1.6 | 0.00 | 0.00 | 0.00 | 95 | 1001.8 |
| 20260505065315 | 20 | 261 | 0.0 | 1.6 | 0.00 | 0.00 | 0.00 | 94 | 1001.8 |
| 20260505065215 | 20 | 259 | 0.0 | 3.2 | 0.00 | 0.00 | 0.00 | 94 | 1001.8 |
| 20260505065115 | 20 | 259 | 0.0 | 3.2 | 0.00 | 0.00 | 0.00 | 94 | 1001.8 |
| 20260505065016 | 20 | 259 | 0.0 | 3.2 | 0.00 | 0.00 | 0.00 | 94 | 1001.8 |
| 20260505064914 | 20 | 266 | 0.0 | 3.2 | 0.00 | 0.00 | 0.00 | 94 | 1001.9 |
| 20260505064815 | 20 | 266 | 0.0 | 3.2 | 0.00 | 0.00 | 0.00 | 94 | 1001.9 |
| 20260505064715 | 20 | 271 | 0.0 | 3.2 | 0.00 | 0.00 | 0.00 | 94 | 1001.9 |
| 20260505064615 | 20 | 176 | 0.0 | 3.2 | 0.00 | 0.00 | 0.00 | 94 | 1001.8 |
| 20260505064521 | 20 | 176 | 0.0 | 3.2 | 0.00 | 0.00 | 0.00 | 94 | 1002.0 |
| 20260505064415 | 20 | 176 | 0.0 | 3.2 | 0.00 | 0.00 | 0.00 | 94 | 1001.9 |
| 20260505064315 | 20 | 176 | 0.0 | 3.2 | 0.00 | 0.00 | 0.00 | 94 | 1002.0 |
| 20260505064215 | 20 | 224 | 0.0 | 0.0 | 0.00 | 0.00 | 0.00 | 94 | 1002.0 |
| 20260505064117 | 20 | 221 | 0.0 | 0.0 | 0.00 | 0.00 | 0.00 | 94 | 1002.0 |
| 20260505064015 | 20 | 221 | 0.0 | 0.0 | 0.00 | 0.00 | 0.00 | 94 | 1002.0 |
| 20260505063916 | 20 | 221 | 0.0 | 0.0 | 0.00 | 0.00 | 0.00 | 94 | 1001.9 |
| 20260505063815 | 20 | 223 | 0.0 | 0.0 | 0.00 | 0.00 | 0.00 | 94 | 1002.0 |
| 20260505063714 | 20 | 223 | 0.0 | 0.0 | 0.00 | 0.00 | 0.00 | 94 | 1002.0 |
| 20260505063619 | 20 | 223 | 0.0 | 0.0 | 0.00 | 0.00 | 0.00 | 94 | 1002.0 |
| 20260505063516 | 20 | 221 | 0.0 | 0.0 | 0.00 | 0.00 | 0.00 | 94 | 1002.0 |
| 20260505063416 | 20 | 221 | 0.0 | 0.0 | 0.00 | 0.00 | 0.00 | 94 | 1002.0 |
| 20260505063316 | 20 | 221 | 0.0 | 0.0 | 0.00 | 0.00 | 0.00 | 94 | 1001.9 |
| 20260505063215 | 20 | 221 | 0.0 | 1.6 | 0.00 | 0.00 | 0.00 | 94 | 1002.0 |
| 20260505063114 | 20 | 221 | 0.0 | 1.6 | 0.00 | 0.00 | 0.00 | 94 | 1001.9 |
| 20260505063015 | 20 | 221 | 0.0 | 1.6 | 0.00 | 0.00 | 0.00 | 94 | 1001.9 |
| 20260505062915 | 20 | 221 | 0.0 | 1.6 | 0.00 | 0.00 | 0.00 | 94 | 1001.9 |
| 20260505062815 | 20 | 221 | 0.0 | 1.6 | 0.00 | 0.00 | 0.00 | 94 | 1002.0 |
| 20260505062715 | 20 | 221 | 0.0 | 1.6 | 0.00 | 0.00 | 0.00 | 94 | 1001.9 |
| 20260505062614 | 20 | 221 | 0.0 | 3.2 | 0.00 | 0.00 | 0.00 | 94 | 1001.9 |
| 20260505062514 | 20 | 221 | 0.0 | 3.2 | 0.00 | 0.00 | 0.00 | 94 | 1002.0 |
| 20260505062415 | 20 | 221 | 0.0 | 3.2 | 0.00 | 0.00 | 0.00 | 94 | 1002.0 |
| 20260505062317 | 20 | 221 | 0.0 | 3.2 | 0.00 | 0.00 | 0.00 | 94 | 1001.9 |
| 20260505062214 | 20 | 247 | 0.0 | 3.2 | 0.00 | 0.00 | 0.00 | 94 | 1001.9 |
| 20260505062116 | 20 | 247 | 0.0 | 3.2 | 0.00 | 0.00 | 0.00 | 94 | 1001.9 |
| 20260505062016 | 20 | 247 | 0.0 | 3.2 | 0.00 | 0.00 | 0.00 | 94 | 1002.0 |
| 20260505061915 | 20 | 245 | 0.0 | 3.2 | 0.00 | 0.00 | 0.00 | 94 | 1002.0 |
| 20260505061814 | 20 | 245 | 0.0 | 3.2 | 0.00 | 0.00 | 0.00 | 94 | 1002.0 |
| 20260505061716 | 20 | 245 | 0.0 | 3.2 | 0.00 | 0.00 | 0.00 | 94 | 1002.1 |
| 20260505061615 | 20 | 173 | 0.0 | 3.2 | 0.00 | 0.00 | 0.00 | 94 | 1002.0 |
| 20260505061517 | 20 | 173 | 0.0 | 3.2 | 0.00 | 0.00 | 0.00 | 94 | 1002.0 |
| 20260505061416 | 20 | 173 | 0.0 | 3.2 | 0.00 | 0.00 | 0.00 | 94 | 1002.0 |
| 20260505061314 | 21 | 171 | 0.0 | 3.2 | 0.00 | 0.00 | 0.00 | 94 | 1002.1 |
| 20260505061214 | 20 | 171 | 0.0 | 3.2 | 0.00 | 0.00 | 0.00 | 94 | 1002.0 |
| 20260505061115 | 21 | 171 | 0.0 | 3.2 | 0.00 | 0.00 | 0.00 | 94 | 1002.0 |
| 20260505061018 | 21 | 164 | 0.0 | 3.2 | 0.00 | 0.00 | 0.00 | 94 | 1002.0 |
| 20260505060915 | 20 | 252 | 0.0 | 3.2 | 0.00 | 0.00 | 0.00 | 94 | 1002.0 |
| 20260505060814 | 21 | 278 | 0.0 | 1.6 | 0.00 | 0.00 | 0.00 | 94 | 1002.0 |
| 20260505060715 | 21 | 148 | 0.0 | 1.6 | 0.00 | 0.00 | 0.00 | 94 | 1002.0 |
| 20260505060615 | 21 | 240 | 0.0 | 4.8 | 0.00 | 0.00 | 0.00 | 93 | 1002.1 |
| 20260505060515 | 21 | 238 | 0.0 | 4.8 | 0.00 | 0.00 | 0.00 | 93 | 1002.0 |
| 20260505060415 | 21 | 237 | 0.0 | 4.8 | 0.00 | 0.00 | 0.00 | 93 | 1002.1 |
| 20260505060315 | 21 | 210 | 0.0 | 4.8 | 0.00 | 0.00 | 0.00 | 93 | 1002.1 |
| 20260505060214 | 21 | 210 | 0.0 | 4.8 | 0.00 | 0.00 | 0.00 | 93 | 1002.1 |
| 20260505060114 | 21 | 210 | 0.0 | 4.8 | 0.00 | 0.00 | 0.00 | 93 | 1002.1 |
| 20260505060014 | 21 | 210 | 0.0 | 4.8 | 0.00 | 0.00 | 0.00 | 93 | 1002.2 |
| 20260505055913 | 21 | 210 | 0.0 | 4.8 | 0.00 | 0.00 | 0.00 | 93 | 1002.1 |
| 20260505055815 | 21 | 209 | 1.6 | 4.8 | 0.00 | 0.00 | 0.00 | 93 | 1002.2 |
| 20260505055715 | 21 | 230 | 1.6 | 4.8 | 0.00 | 0.00 | 0.00 | 93 | 1002.2 |
| 20260505055614 | 21 | 203 | 0.0 | 1.6 | 0.00 | 0.00 | 0.00 | 93 | 1002.3 |
| 20260505055515 | 21 | 73 | 0.0 | 0.0 | 0.00 | 0.00 | 0.00 | 93 | 1002.3 |
| 20260505055415 | 21 | 73 | 0.0 | 0.0 | 0.00 | 0.00 | 0.00 | 93 | 1002.4 |
| 20260505055313 | 21 | 73 | 0.0 | 0.0 | 0.00 | 0.00 | 0.00 | 93 | 1002.4 |
| 20260505055218 | 21 | 73 | 0.0 | 0.0 | 0.00 | 0.00 | 0.00 | 93 | 1002.4 |
| 20260505055115 | 21 | 69 | 0.0 | 0.0 | 0.00 | 0.00 | 0.00 | 93 | 1002.3 |
| 20260505055013 | 21 | 69 | 0.0 | 0.0 | 0.00 | 0.00 | 0.00 | 93 | 1002.3 |
| 20260505054911 | 21 | 69 | 0.0 | 0.0 | 0.00 | 0.00 | 0.00 | 93 | 1002.2 |
| 20260505054806 | 21 | 69 | 0.0 | 4.8 | 0.00 | 0.00 | 0.00 | 93 | 1002.3 |
| 20260505054705 | 21 | 69 | 0.0 | 4.8 | 0.00 | 0.00 | 0.00 | 93 | 1002.3 |
| 20260505054603 | 21 | 68 | 0.0 | 4.8 | 0.00 | 0.00 | 0.00 | 93 | 1002.3 |
| 20260505054504 | 21 | 68 | 0.0 | 4.8 | 0.00 | 0.00 | 0.00 | 93 | 1002.3 |
| 20260505054402 | 21 | 68 | 0.0 | 4.8 | 0.00 | 0.00 | 0.00 | 93 | 1002.3 |
| 20260505054304 | 21 | 68 | 0.0 | 4.8 | 0.00 | 0.00 | 0.00 | 93 | 1002.3 |
| 20260505054203 | 21 | 68 | 0.0 | 4.8 | 0.00 | 0.00 | 0.00 | 93 | 1002.3 |
| 20260505054102 | 21 | 51 | 0.0 | 4.8 | 0.00 | 0.00 | 0.00 | 93 | 1002.3 |
| 20260505054005 | 21 | 51 | 0.0 | 4.8 | 0.00 | 0.00 | 0.00 | 93 | 1002.3 |
| 20260505053904 | 21 | 45 | 0.0 | 4.8 | 0.00 | 0.00 | 0.00 | 93 | 1002.3 |
| 20260505053805 | 21 | 54 | 0.0 | 3.2 | 0.00 | 0.00 | 0.00 | 93 | 1002.2 |
| 20260505053702 | 21 | 54 | 0.0 | 3.2 | 0.00 | 0.00 | 0.00 | 93 | 1002.3 |
| 20260505053605 | 21 | 54 | 0.0 | 3.2 | 0.00 | 0.00 | 0.00 | 93 | 1002.2 |
| 20260505053504 | 21 | 354 | 0.0 | 1.6 | 0.00 | 0.00 | 0.00 | 93 | 1002.3 |
| 20260505053403 | 21 | 354 | 0.0 | 1.6 | 0.00 | 0.00 | 0.00 | 93 | 1002.3 |
| 20260505053303 | 21 | 354 | 0.0 | 1.6 | 0.00 | 0.00 | 0.00 | 93 | 1002.3 |
| 20260505053205 | 21 | 345 | 0.0 | 1.6 | 0.00 | 0.00 | 0.00 | 93 | 1002.3 |
| 20260505053101 | 21 | 331 | 0.0 | 1.6 | 0.00 | 0.00 | 0.00 | 93 | 1002.3 |
| 20260505053005 | 21 | 331 | 0.0 | 1.6 | 0.00 | 0.00 | 0.00 | 93 | 1002.3 |
| 20260505052903 | 21 | 330 | 0.0 | 1.6 | 0.00 | 0.00 | 0.00 | 93 | 1002.3 |
| 20260505052803 | 21 | 330 | 0.0 | 1.6 | 0.00 | 0.00 | 0.00 | 93 | 1002.4 |
| 20260505052704 | 21 | 330 | 0.0 | 1.6 | 0.00 | 0.00 | 0.00 | 93 | 1002.5 |
| 20260505052559 | 21 | 197 | 0.0 | 3.2 | 0.00 | 0.00 | 0.00 | 93 | 1002.5 |
| 20260505052457 | 21 | 197 | 0.0 | 3.2 | 0.00 | 0.00 | 0.00 | 93 | 1002.5 |
| 20260505052350 | 21 | 197 | 0.0 | 3.2 | 0.00 | 0.00 | 0.00 | 93 | 1002.5 |
| 20260505052245 | 21 | 197 | 0.0 | 4.8 | 0.00 | 0.00 | 0.00 | 92 | 1002.5 |
| 20260505052141 | 21 | 258 | 0.0 | 4.8 | 0.00 | 0.00 | 0.00 | 92 | 1002.5 |
| 20260505052036 | 21 | 258 | 0.0 | 4.8 | 0.00 | 0.00 | 0.00 | 92 | 1002.5 |
| 20260505051931 | 21 | 258 | 0.0 | 4.8 | 0.00 | 0.00 | 0.00 | 92 | 1002.5 |
| 20260505051831 | 21 | 261 | 0.0 | 4.8 | 0.00 | 0.00 | 0.00 | 92 | 1002.5 |
| 20260505051731 | 21 | 261 | 0.0 | 4.8 | 0.00 | 0.00 | 0.00 | 92 | 1002.5 |
| 20260505051636 | 21 | 261 | 0.0 | 4.8 | 0.00 | 0.00 | 0.00 | 92 | 1002.5 |
| 20260505051522 | 21 | 203 | 0.0 | 4.8 | 0.00 | 0.00 | 0.00 | 92 | 1002.4 |
| 20260505051417 | 21 | 203 | 0.0 | 4.8 | 0.00 | 0.00 | 0.00 | 92 | 1002.5 |
| 20260505051316 | 21 | 203 | 0.0 | 4.8 | 0.00 | 0.00 | 0.00 | 92 | 1002.4 |
| 20260505051215 | 21 | 192 | 0.0 | 3.2 | 0.00 | 0.00 | 0.00 | 92 | 1002.5 |
| 20260505051115 | 21 | 192 | 0.0 | 3.2 | 0.00 | 0.00 | 0.00 | 92 | 1002.4 |
| 20260505051012 | 21 | 190 | 0.0 | 3.2 | 0.00 | 0.00 | 0.00 | 92 | 1002.5 |
| 20260505050913 | 21 | 190 | 1.6 | 3.2 | 0.00 | 0.00 | 0.00 | 92 | 1002.5 |
| 20260505050813 | 21 | 278 | 0.0 | 3.2 | 0.00 | 0.00 | 0.00 | 92 | 1002.5 |
| 20260505050713 | 21 | 290 | 0.0 | 1.6 | 0.00 | 0.00 | 0.00 | 92 | 1002.5 |
| 20260505050612 | 21 | 176 | 0.0 | 1.6 | 0.00 | 0.00 | 0.00 | 92 | 1002.6 |
| 20260505050514 | 21 | 176 | 0.0 | 1.6 | 0.00 | 0.00 | 0.00 | 92 | 1002.6 |
| 20260505050413 | 21 | 176 | 0.0 | 1.6 | 0.00 | 0.00 | 0.00 | 92 | 1002.6 |
| 20260505050314 | 21 | 179 | 0.0 | 1.6 | 0.00 | 0.00 | 0.00 | 92 | 1002.6 |
| 20260505050213 | 21 | 179 | 0.0 | 1.6 | 0.00 | 0.00 | 0.00 | 92 | 1002.6 |
| 20260505050113 | 21 | 179 | 0.0 | 1.6 | 0.00 | 0.00 | 0.00 | 92 | 1002.6 |
| 20260505041703 | 21 | 214 | 0.0 | 1.6 | 0.00 | 0.00 | 0.00 | 90 | 1002.6 |
| 20260505041604 | 21 | 214 | 0.0 | 3.2 | 0.00 | 0.00 | 0.00 | 90 | 1002.6 |
| 20260505041503 | 21 | 216 | 0.0 | 3.2 | 0.00 | 0.00 | 0.00 | 90 | 1002.6 |
| 20260505041403 | 21 | 216 | 0.0 | 3.2 | 0.00 | 0.00 | 0.00 | 90 | 1002.7 |
| 20260505041302 | 21 | 216 | 0.0 | 3.2 | 0.00 | 0.00 | 0.00 | 90 | 1002.6 |
| 20260505041204 | 22 | 214 | 0.0 | 3.2 | 0.00 | 0.00 | 0.00 | 90 | 1002.6 |
| 20260505041103 | 22 | 142 | 0.0 | 3.2 | 0.00 | 0.00 | 0.00 | 90 | 1002.6 |
| 20260505041004 | 22 | 142 | 0.0 | 3.2 | 0.00 | 0.00 | 0.00 | 90 | 1002.7 |
| 20260505040902 | 22 | 121 | 0.0 | 3.2 | 0.00 | 0.00 | 0.00 | 90 | 1002.6 |
| 20260505040802 | 22 | 121 | 1.6 | 3.2 | 0.00 | 0.00 | 0.00 | 90 | 1002.6 |
| 20260505040703 | 22 | 123 | 0.0 | 3.2 | 0.00 | 0.00 | 0.00 | 90 | 1002.7 |
| 20260505040604 | 22 | 240 | 0.0 | 4.8 | 0.00 | 0.00 | 0.00 | 90 | 1002.6 |
| 20260505040502 | 22 | 240 | 0.0 | 4.8 | 0.00 | 0.00 | 0.00 | 90 | 1002.6 |
| 20260505040401 | 22 | 234 | 0.0 | 4.8 | 0.00 | 0.00 | 0.00 | 90 | 1002.6 |
| 20260505040303 | 22 | 234 | 0.0 | 4.8 | 0.00 | 0.00 | 0.00 | 90 | 1002.6 |
| 20260505040203 | 22 | 234 | 0.0 | 4.8 | 0.00 | 0.00 | 0.00 | 90 | 1002.5 |
| 20260505040003 | 22 | 283 | 0.0 | 4.8 | 0.00 | 0.00 | 0.00 | 90 | 1002.5 |
| 20260505035904 | 22 | 234 | 0.0 | 4.8 | 0.00 | 0.00 | 0.00 | 90 | 1002.5 |
| 20260505035803 | 22 | 234 | 1.6 | 4.8 | 0.00 | 0.00 | 0.00 | 90 | 1002.4 |
| 20260505035703 | 22 | 224 | 0.0 | 4.8 | 0.00 | 0.00 | 0.00 | 90 | 1002.5 |
| 20260505035602 | 22 | 247 | 0.0 | 3.2 | 0.00 | 0.00 | 0.00 | 90 | 1002.5 |
| 20260505035505 | 22 | 217 | 0.0 | 3.2 | 0.00 | 0.00 | 0.00 | 90 | 1002.5 |
| 20260505035403 | 22 | 217 | 0.0 | 3.2 | 0.00 | 0.00 | 0.00 | 90 | 1002.6 |
| 20260505035304 | 22 | 200 | 0.0 | 3.2 | 0.00 | 0.00 | 0.00 | 90 | 1002.6 |
| 20260505035202 | 22 | 0 | 0.0 | 1.6 | 0.00 | 0.00 | 0.00 | 90 | 1002.7 |
| 20260505035104 | 22 | 155 | 0.0 | 3.2 | 0.00 | 0.00 | 0.00 | 90 | 1002.8 |
| 20260505035003 | 22 | 279 | 0.0 | 3.2 | 0.00 | 0.00 | 0.00 | 90 | 1002.9 |
| 20260505034904 | 22 | 281 | 0.0 | 3.2 | 0.00 | 0.00 | 0.00 | 90 | 1002.9 |
| 20260505034802 | 22 | 262 | 0.0 | 3.2 | 0.00 | 0.00 | 0.00 | 90 | 1003.0 |
| 20260505034703 | 22 | 262 | 0.0 | 3.2 | 0.00 | 0.00 | 0.00 | 90 | 1002.9 |
| 20260505034603 | 22 | 271 | 0.0 | 3.2 | 0.00 | 0.00 | 0.00 | 90 | 1002.9 |
| 20260505034505 | 22 | 271 | 0.0 | 3.2 | 0.00 | 0.00 | 0.00 | 89 | 1002.9 |
| 20260505034404 | 22 | 271 | 0.0 | 3.2 | 0.00 | 0.00 | 0.00 | 89 | 1002.9 |
| 20260505034302 | 22 | 272 | 0.0 | 3.2 | 0.00 | 0.00 | 0.00 | 89 | 1002.7 |
| 20260505034202 | 22 | 272 | 0.0 | 3.2 | 0.00 | 0.00 | 0.00 | 89 | 1002.7 |
| 20260505034103 | 22 | 179 | 0.0 | 1.6 | 0.00 | 0.00 | 0.00 | 89 | 1002.7 |
| 20260505034005 | 22 | 252 | 0.0 | 1.6 | 0.00 | 0.00 | 0.00 | 89 | 1002.7 |
| 20260505033904 | 22 | 210 | 0.0 | 1.6 | 0.00 | 0.00 | 0.00 | 89 | 1002.6 |
| 20260505033802 | 22 | 210 | 0.0 | 1.6 | 0.00 | 0.00 | 0.00 | 89 | 1002.7 |
| 20260505033702 | 22 | 210 | 0.0 | 3.2 | 0.00 | 0.00 | 0.00 | 89 | 1002.7 |
| 20260505033603 | 22 | 135 | 0.0 | 3.2 | 0.00 | 0.00 | 0.00 | 89 | 1002.7 |
| 20260505033503 | 22 | 135 | 0.0 | 3.2 | 0.00 | 0.00 | 0.00 | 89 | 1002.8 |
| 20260505033403 | 22 | 135 | 0.0 | 3.2 | 0.00 | 0.00 | 0.00 | 89 | 1002.7 |
| 20260505033304 | 22 | 140 | 0.0 | 3.2 | 0.00 | 0.00 | 0.00 | 89 | 1002.7 |
| 20260505033204 | 22 | 141 | 0.0 | 3.2 | 0.00 | 0.00 | 0.00 | 89 | 1002.7 |
| 20260505033104 | 22 | 252 | 0.0 | 3.2 | 0.00 | 0.00 | 0.00 | 89 | 1002.7 |
| 20260505033005 | 22 | 252 | 0.0 | 3.2 | 0.00 | 0.00 | 0.00 | 89 | 1002.7 |
| 20260505032904 | 22 | 252 | 1.6 | 3.2 | 0.00 | 0.00 | 0.00 | 89 | 1002.8 |
| 20260505032803 | 22 | 252 | 1.6 | 3.2 | 0.00 | 0.00 | 0.00 | 89 | 1002.7 |
| 20260505032703 | 22 | 282 | 0.0 | 3.2 | 0.00 | 0.00 | 0.00 | 89 | 1002.9 |
| 20260505032604 | 22 | 288 | 0.0 | 3.2 | 0.00 | 0.00 | 0.00 | 89 | 1002.9 |
| 20260505032502 | 22 | 186 | 0.0 | 3.2 | 0.00 | 0.00 | 0.00 | 89 | 1002.9 |
| 20260505032404 | 22 | 192 | 0.0 | 3.2 | 0.00 | 0.00 | 0.00 | 89 | 1003.0 |
| 20260505032304 | 22 | 197 | 0.0 | 3.2 | 0.00 | 0.00 | 0.00 | 89 | 1003.1 |
| 20260505032204 | 22 | 197 | 0.0 | 3.2 | 0.00 | 0.00 | 0.00 | 89 | 1003.0 |
| 20260505032106 | 22 | 197 | 0.0 | 3.2 | 0.00 | 0.00 | 0.00 | 89 | 1003.0 |
| 20260505032002 | 22 | 195 | 0.0 | 3.2 | 0.00 | 0.00 | 0.00 | 89 | 1003.0 |
| 20260505031902 | 22 | 221 | 0.0 | 3.2 | 0.00 | 0.00 | 0.00 | 89 | 1003.0 |
| 20260505031803 | 22 | 178 | 1.6 | 3.2 | 0.00 | 0.00 | 0.00 | 89 | 1003.0 |
| 20260505031703 | 22 | 290 | 0.0 | 3.2 | 0.00 | 0.00 | 0.00 | 89 | 1003.0 |
| 20260505031601 | 22 | 238 | 0.0 | 3.2 | 0.00 | 0.00 | 0.00 | 88 | 1002.9 |
| 20260505031503 | 22 | 238 | 0.0 | 3.2 | 0.00 | 0.00 | 0.00 | 88 | 1002.9 |
| 20260505031402 | 22 | 240 | 0.0 | 3.2 | 0.00 | 0.00 | 0.00 | 88 | 1002.9 |
| 20260505031302 | 22 | 240 | 1.6 | 3.2 | 0.00 | 0.00 | 0.00 | 88 | 1003.1 |
| 20260505031201 | 22 | 271 | 0.0 | 3.2 | 0.00 | 0.00 | 0.00 | 88 | 1002.9 |
| 20260505031056 | 22 | 159 | 0.0 | 3.2 | 0.00 | 0.00 | 0.00 | 88 | 1002.9 |
| 20260505030949 | 22 | 235 | 0.0 | 3.2 | 0.00 | 0.00 | 0.00 | 88 | 1002.8 |
| 20260505030846 | 22 | 235 | 0.0 | 3.2 | 0.00 | 0.00 | 0.00 | 88 | 1002.8 |
| 20260505030739 | 22 | 235 | 0.0 | 3.2 | 0.00 | 0.00 | 0.00 | 88 | 1002.8 |
| 20260505030638 | 22 | 235 | 1.6 | 3.2 | 0.00 | 0.00 | 0.00 | 88 | 1002.8 |
| 20260505030534 | 22 | 235 | 1.6 | 3.2 | 0.00 | 0.00 | 0.00 | 88 | 1002.9 |
| 20260505030434 | 22 | 333 | 0.0 | 1.6 | 0.00 | 0.00 | 0.00 | 88 | 1002.8 |
| 20260505030331 | 22 | 157 | 0.0 | 1.6 | 0.00 | 0.00 | 0.00 | 88 | 1002.8 |
| 20260505030233 | 22 | 109 | 0.0 | 3.2 | 0.00 | 0.00 | 0.00 | 88 | 1002.9 |
| 20260505030132 | 22 | 109 | 0.0 | 3.2 | 0.00 | 0.00 | 0.00 | 88 | 1002.8 |
| 20260505030028 | 22 | 109 | 0.0 | 3.2 | 0.00 | 0.00 | 0.00 | 88 | 1002.8 |
| 20260505025928 | 22 | 109 | 0.0 | 3.2 | 0.00 | 0.00 | 0.00 | 88 | 1002.8 |
| 20260505025818 | 22 | 109 | 0.0 | 3.2 | 0.00 | 0.00 | 0.00 | 88 | 1002.7 |
| 20260505025713 | 22 | 107 | 0.0 | 3.2 | 0.00 | 0.00 | 0.00 | 88 | 1002.7 |
| 20260505025611 | 22 | 109 | 0.0 | 3.2 | 0.00 | 0.00 | 0.00 | 88 | 1002.7 |
| 20260505025509 | 22 | 106 | 0.0 | 3.2 | 0.00 | 0.00 | 0.00 | 88 | 1002.7 |
| 20260505025420 | 22 | 106 | 0.0 | 8.0 | 0.00 | 0.00 | 0.00 | 88 | 1002.8 |
| 20260505025311 | 22 | 354 | 0.0 | 8.0 | 0.00 | 0.00 | 0.00 | 88 | 1002.7 |
| 20260505025210 | 23 | 90 | 0.0 | 8.0 | 0.00 | 0.00 | 0.00 | 88 | 1002.8 |
| 20260505025111 | 23 | 94 | 0.0 | 8.0 | 0.00 | 0.00 | 0.00 | 88 | 1002.8 |
| 20260505025012 | 23 | 94 | 1.6 | 8.0 | 0.00 | 0.00 | 0.00 | 88 | 1002.7 |
| 20260505024910 | 23 | 340 | 1.6 | 8.0 | 0.00 | 0.00 | 0.00 | 88 | 1002.7 |
| 20260505024809 | 23 | 179 | 0.0 | 8.0 | 0.00 | 0.00 | 0.00 | 88 | 1002.6 |
| 20260505024711 | 23 | 124 | 0.0 | 8.0 | 0.00 | 0.00 | 0.00 | 88 | 1002.6 |
| 20260505024609 | 23 | 124 | 1.6 | 8.0 | 0.00 | 0.00 | 0.00 | 88 | 1002.5 |
| 20260505024511 | 23 | 116 | 1.6 | 8.0 | 0.00 | 0.00 | 0.00 | 87 | 1002.6 |
| 20260505024410 | 23 | 214 | 1.6 | 4.8 | 0.00 | 0.00 | 0.00 | 87 | 1002.6 |
| 20260505024309 | 23 | 219 | 1.6 | 4.8 | 0.00 | 0.00 | 0.00 | 87 | 1002.6 |
| 20260505024210 | 23 | 125 | 0.0 | 4.8 | 0.00 | 0.00 | 0.00 | 87 | 1002.6 |
| 20260505024111 | 23 | 125 | 0.0 | 4.8 | 0.00 | 0.00 | 0.00 | 87 | 1002.6 |
| 20260505024009 | 23 | 243 | 0.0 | 4.8 | 0.00 | 0.00 | 0.00 | 87 | 1002.5 |
| 20260505023909 | 23 | 243 | 0.0 | 4.8 | 0.00 | 0.00 | 0.00 | 87 | 1002.5 |
| 20260505023811 | 23 | 243 | 0.0 | 4.8 | 0.00 | 0.00 | 0.00 | 87 | 1002.5 |
| 20260505023709 | 23 | 243 | 0.0 | 4.8 | 0.00 | 0.00 | 0.00 | 87 | 1002.5 |
| 20260505023610 | 23 | 243 | 0.0 | 4.8 | 0.00 | 0.00 | 0.00 | 87 | 1002.5 |
| 20260505023509 | 23 | 243 | 0.0 | 4.8 | 0.00 | 0.00 | 0.00 | 87 | 1002.5 |
| 20260505023411 | 23 | 241 | 1.6 | 4.8 | 0.00 | 0.00 | 0.00 | 87 | 1002.5 |
| 20260505023311 | 23 | 244 | 1.6 | 4.8 | 0.00 | 0.00 | 0.00 | 87 | 1002.5 |
| 20260505023209 | 23 | 238 | 0.0 | 4.8 | 0.00 | 0.00 | 0.00 | 87 | 1002.6 |
| 20260505023110 | 23 | 234 | 0.0 | 6.4 | 0.00 | 0.00 | 0.00 | 87 | 1002.5 |
| 20260505023010 | 23 | 234 | 0.0 | 6.4 | 0.00 | 0.00 | 0.00 | 88 | 1002.6 |
| 20260505022909 | 23 | 234 | 0.0 | 6.4 | 0.00 | 0.00 | 0.00 | 88 | 1002.5 |
| 20260505022810 | 23 | 234 | 0.0 | 6.4 | 0.00 | 0.00 | 0.00 | 87 | 1002.5 |
| 20260505022709 | 23 | 234 | 0.0 | 6.4 | 0.00 | 0.00 | 0.00 | 87 | 1002.5 |
| 20260505022609 | 23 | 269 | 0.0 | 6.4 | 0.00 | 0.00 | 0.00 | 87 | 1002.6 |
| 20260505022509 | 23 | 269 | 0.0 | 6.4 | 0.00 | 0.00 | 0.00 | 87 | 1002.5 |
| 20260505022410 | 23 | 283 | 0.0 | 6.4 | 0.00 | 0.00 | 0.00 | 87 | 1002.5 |
| 20260505022309 | 23 | 283 | 1.6 | 6.4 | 0.00 | 0.00 | 0.00 | 87 | 1002.5 |
| 20260505022209 | 23 | 173 | 1.6 | 6.4 | 0.00 | 0.00 | 0.00 | 87 | 1002.6 |
| 20260505022109 | 23 | 180 | 0.0 | 0.0 | 0.00 | 0.00 | 0.00 | 87 | 1002.6 |
| 20260505022009 | 23 | 180 | 0.0 | 0.0 | 0.00 | 0.00 | 0.00 | 87 | 1002.6 |
| 20260505021909 | 23 | 180 | 0.0 | 0.0 | 0.00 | 0.00 | 0.00 | 87 | 1002.5 |
| 20260505021810 | 23 | 180 | 0.0 | 0.0 | 0.00 | 0.00 | 0.00 | 87 | 1002.5 |
| 20260505021710 | 23 | 180 | 0.0 | 0.0 | 0.00 | 0.00 | 0.00 | 87 | 1002.5 |
| 20260505021610 | 23 | 180 | 0.0 | 0.0 | 0.00 | 0.00 | 0.00 | 87 | 1002.4 |
| 20260505021506 | 23 | 179 | 0.0 | 0.0 | 0.00 | 0.00 | 0.00 | 87 | 1002.3 |
| 20260505021403 | 23 | 179 | 0.0 | 0.0 | 0.00 | 0.00 | 0.00 | 87 | 1002.4 |
| 20260505021303 | 23 | 241 | 0.0 | 0.0 | 0.00 | 0.00 | 0.00 | 87 | 1002.4 |
| 20260505021204 | 23 | 243 | 0.0 | 0.0 | 0.00 | 0.00 | 0.00 | 87 | 1002.4 |
| 20260505021103 | 23 | 243 | 0.0 | 0.0 | 0.00 | 0.00 | 0.00 | 87 | 1002.4 |
| 20260505021005 | 23 | 243 | 0.0 | 0.0 | 0.00 | 0.00 | 0.00 | 87 | 1002.4 |
| 20260505020904 | 23 | 243 | 0.0 | 0.0 | 0.00 | 0.00 | 0.00 | 87 | 1002.4 |
| 20260505020803 | 23 | 243 | 0.0 | 1.6 | 0.00 | 0.00 | 0.00 | 87 | 1002.3 |
| 20260505020703 | 23 | 238 | 0.0 | 1.6 | 0.00 | 0.00 | 0.00 | 87 | 1002.4 |
| 20260505020605 | 23 | 238 | 0.0 | 3.2 | 0.00 | 0.00 | 0.00 | 87 | 1002.4 |
| 20260505020502 | 23 | 238 | 0.0 | 3.2 | 0.00 | 0.00 | 0.00 | 87 | 1002.4 |
| 20260505020403 | 23 | 233 | 0.0 | 3.2 | 0.00 | 0.00 | 0.00 | 87 | 1002.4 |
| 20260505020303 | 23 | 233 | 0.0 | 3.2 | 0.00 | 0.00 | 0.00 | 87 | 1002.4 |
| 20260505020202 | 23 | 295 | 0.0 | 3.2 | 0.00 | 0.00 | 0.00 | 87 | 1002.3 |
| 20260505020003 | 23 | 204 | 0.0 | 3.2 | 0.00 | 0.00 | 0.00 | 87 | 1002.4 |
| 20260505015904 | 23 | 204 | 0.0 | 3.2 | 0.00 | 0.00 | 0.00 | 87 | 1002.3 |
| 20260505015803 | 23 | 312 | 0.0 | 3.2 | 0.00 | 0.00 | 0.00 | 86 | 1002.4 |
| 20260505015702 | 23 | 266 | 0.0 | 3.2 | 0.00 | 0.00 | 0.00 | 86 | 1002.4 |
| 20260505015602 | 23 | 337 | 0.0 | 3.2 | 0.00 | 0.00 | 0.00 | 86 | 1002.3 |
| 20260505015504 | 23 | 269 | 0.0 | 3.2 | 0.00 | 0.00 | 0.00 | 86 | 1002.3 |
| 20260505015404 | 23 | 196 | 0.0 | 3.2 | 0.00 | 0.00 | 0.00 | 86 | 1002.4 |
| 20260505015304 | 23 | 195 | 0.0 | 3.2 | 0.00 | 0.00 | 0.00 | 86 | 1002.3 |
| 20260505015205 | 23 | 195 | 0.0 | 3.2 | 0.00 | 0.00 | 0.00 | 86 | 1002.4 |
| 20260505015102 | 23 | 213 | 0.0 | 3.2 | 0.00 | 0.00 | 0.00 | 86 | 1002.4 |
| 20260505015003 | 23 | 288 | 0.0 | 3.2 | 0.00 | 0.00 | 0.00 | 86 | 1002.4 |
| 20260505014903 | 23 | 289 | 0.0 | 3.2 | 0.00 | 0.00 | 0.00 | 86 | 1002.3 |
| 20260505014802 | 23 | 157 | 0.0 | 3.2 | 0.00 | 0.00 | 0.00 | 86 | 1002.3 |
| 20260505014654 | 23 | 155 | 0.0 | 3.2 | 0.00 | 0.00 | 0.00 | 86 | 1002.4 |
| 20260505014552 | 23 | 217 | 0.0 | 3.2 | 0.00 | 0.00 | 0.00 | 86 | 1002.3 |
| 20260505014451 | 23 | 224 | 0.0 | 1.6 | 0.00 | 0.00 | 0.00 | 86 | 1002.3 |
| 20260505014343 | 23 | 149 | 0.0 | 1.6 | 0.00 | 0.00 | 0.00 | 86 | 1002.2 |
| 20260505014239 | 23 | 148 | 0.0 | 1.6 | 0.00 | 0.00 | 0.00 | 86 | 1002.3 |
| 20260505014131 | 23 | 131 | 0.0 | 3.2 | 0.00 | 0.00 | 0.00 | 86 | 1002.3 |
| 20260505014032 | 23 | 131 | 0.0 | 3.2 | 0.00 | 0.00 | 0.00 | 86 | 1002.3 |
| 20260505013932 | 23 | 128 | 0.0 | 3.2 | 0.00 | 0.00 | 0.00 | 85 | 1002.3 |
| 20260505013832 | 23 | 128 | 0.0 | 4.8 | 0.00 | 0.00 | 0.00 | 85 | 1002.3 |
| 20260505013732 | 23 | 127 | 0.0 | 4.8 | 0.00 | 0.00 | 0.00 | 85 | 1002.3 |
| 20260505013633 | 23 | 127 | 0.0 | 4.8 | 0.00 | 0.00 | 0.00 | 85 | 1002.3 |
| 20260505013531 | 23 | 133 | 0.0 | 4.8 | 0.00 | 0.00 | 0.00 | 85 | 1002.4 |
| 20260505013432 | 23 | 133 | 0.0 | 4.8 | 0.00 | 0.00 | 0.00 | 85 | 1002.3 |
| 20260505013315 | 23 | 133 | 1.6 | 4.8 | 0.00 | 0.00 | 0.00 | 85 | 1002.3 |
| 20260505013215 | 23 | 351 | 0.0 | 4.8 | 0.00 | 0.00 | 0.00 | 85 | 1002.3 |
| 20260505013110 | 23 | 231 | 0.0 | 4.8 | 0.00 | 0.00 | 0.00 | 84 | 1002.2 |
| 20260505013009 | 23 | 186 | 1.6 | 4.8 | 0.00 | 0.00 | 0.00 | 84 | 1002.3 |
| 20260505012909 | 23 | 186 | 1.6 | 4.8 | 0.00 | 0.00 | 0.00 | 84 | 1002.2 |
| 20260505012808 | 23 | 193 | 0.0 | 0.0 | 0.00 | 0.00 | 0.00 | 84 | 1002.3 |
| 20260505012709 | 23 | 185 | 0.0 | 0.0 | 0.00 | 0.00 | 0.00 | 84 | 1002.2 |
| 20260505012608 | 23 | 226 | 0.0 | 0.0 | 0.00 | 0.00 | 0.00 | 84 | 1002.2 |
| 20260505012508 | 23 | 226 | 0.0 | 0.0 | 0.00 | 0.00 | 0.00 | 84 | 1002.2 |
| 20260505012408 | 23 | 288 | 0.0 | 0.0 | 0.00 | 0.00 | 0.00 | 84 | 1002.2 |
| 20260505012309 | 23 | 288 | 0.0 | 0.0 | 0.00 | 0.00 | 0.00 | 84 | 1002.2 |
| 20260505012209 | 23 | 288 | 0.0 | 0.0 | 0.00 | 0.00 | 0.00 | 84 | 1002.2 |
| 20260505012109 | 23 | 288 | 0.0 | 0.0 | 0.00 | 0.00 | 0.00 | 84 | 1002.2 |
| 20260505012009 | 23 | 288 | 0.0 | 0.0 | 0.00 | 0.00 | 0.00 | 84 | 1002.2 |
| 20260505011908 | 23 | 265 | 0.0 | 0.0 | 0.00 | 0.00 | 0.00 | 84 | 1002.1 |
| 20260505011807 | 23 | 265 | 0.0 | 0.0 | 0.00 | 0.00 | 0.00 | 84 | 1002.2 |
| 20260505011707 | 23 | 265 | 0.0 | 0.0 | 0.00 | 0.00 | 0.00 | 84 | 1002.1 |
| 20260505011610 | 23 | 265 | 0.0 | 0.0 | 0.00 | 0.00 | 0.00 | 84 | 1002.1 |
| 20260505011509 | 24 | 265 | 0.0 | 0.0 | 0.00 | 0.00 | 0.00 | 83 | 1002.1 |
| 20260505011409 | 24 | 262 | 0.0 | 0.0 | 0.00 | 0.00 | 0.00 | 83 | 1002.1 |
| 20260505011309 | 24 | 262 | 0.0 | 0.0 | 0.00 | 0.00 | 0.00 | 83 | 1002.1 |
| 20260505011209 | 24 | 244 | 0.0 | 0.0 | 0.00 | 0.00 | 0.00 | 83 | 1002.1 |
| 20260505011107 | 24 | 244 | 0.0 | 0.0 | 0.00 | 0.00 | 0.00 | 83 | 1002.1 |
| 20260505011007 | 24 | 248 | 0.0 | 0.0 | 0.00 | 0.00 | 0.00 | 83 | 1002.0 |
| 20260505010908 | 24 | 203 | 0.0 | 0.0 | 0.00 | 0.00 | 0.00 | 83 | 1002.1 |
| 20260505010808 | 24 | 203 | 0.0 | 0.0 | 0.00 | 0.00 | 0.00 | 83 | 1002.0 |
| 20260505010708 | 24 | 203 | 0.0 | 0.0 | 0.00 | 0.00 | 0.00 | 83 | 1002.0 |
| 20260505010610 | 24 | 203 | 0.0 | 0.0 | 0.00 | 0.00 | 0.00 | 83 | 1002.0 |
| 20260505010508 | 24 | 203 | 0.0 | 0.0 | 0.00 | 0.00 | 0.00 | 83 | 1002.0 |
| 20260505010409 | 24 | 203 | 0.0 | 0.0 | 0.00 | 0.00 | 0.00 | 83 | 1002.1 |
| 20260505010308 | 24 | 203 | 0.0 | 0.0 | 0.00 | 0.00 | 0.00 | 83 | 1002.1 |
| 20260505010208 | 24 | 203 | 0.0 | 0.0 | 0.00 | 0.00 | 0.00 | 83 | 1002.0 |
| 20260505010109 | 24 | 203 | 0.0 | 0.0 | 0.00 | 0.00 | 0.00 | 83 | 1002.2 |
| 20260505010009 | 24 | 203 | 0.0 | 0.0 | 0.00 | 0.00 | 0.00 | 83 | 1002.2 |
| 20260505005908 | 24 | 203 | 0.0 | 0.0 | 0.00 | 0.00 | 0.00 | 82 | 1002.2 |
| 20260505005808 | 24 | 203 | 0.0 | 0.0 | 0.00 | 0.00 | 0.00 | 82 | 1002.2 |
| 20260505005708 | 24 | 203 | 0.0 | 0.0 | 0.00 | 0.00 | 0.00 | 82 | 1002.3 |
| 20260505005608 | 24 | 257 | 0.0 | 0.0 | 0.00 | 0.00 | 0.00 | 82 | 1002.3 |
| 20260505005508 | 24 | 257 | 0.0 | 0.0 | 0.00 | 0.00 | 0.00 | 82 | 1002.2 |
| 20260505005410 | 24 | 243 | 0.0 | 0.0 | 0.00 | 0.00 | 0.00 | 82 | 1002.1 |
| 20260505005309 | 24 | 231 | 0.0 | 0.0 | 0.00 | 0.00 | 0.00 | 82 | 1002.2 |
| 20260505005207 | 24 | 231 | 0.0 | 0.0 | 0.00 | 0.00 | 0.00 | 82 | 1002.2 |
| 20260505005108 | 24 | 231 | 0.0 | 0.0 | 0.00 | 0.00 | 0.00 | 82 | 1002.1 |
| 20260505005013 | 24 | 231 | 0.0 | 0.0 | 0.00 | 0.00 | 0.00 | 82 | 1002.2 |
| 20260505004906 | 25 | 231 | 0.0 | 0.0 | 0.00 | 0.00 | 0.00 | 82 | 1002.2 |
| 20260505004804 | 25 | 219 | 0.0 | 0.0 | 0.00 | 0.00 | 0.00 | 82 | 1002.1 |
| 20260505004703 | 25 | 219 | 0.0 | 0.0 | 0.00 | 0.00 | 0.00 | 82 | 1002.1 |
| 20260505004603 | 25 | 250 | 0.0 | 0.0 | 0.00 | 0.00 | 0.00 | 82 | 1002.0 |
| 20260505004502 | 25 | 155 | 0.0 | 0.0 | 0.00 | 0.00 | 0.00 | 82 | 1002.0 |
| 20260505004404 | 25 | 155 | 0.0 | 0.0 | 0.00 | 0.00 | 0.00 | 82 | 1002.0 |
| 20260505004304 | 25 | 155 | 0.0 | 0.0 | 0.00 | 0.00 | 0.00 | 82 | 1002.0 |
| 20260505004203 | 25 | 155 | 0.0 | 0.0 | 0.00 | 0.00 | 0.00 | 82 | 1002.0 |
| 20260505004103 | 25 | 219 | 0.0 | 0.0 | 0.00 | 0.00 | 0.00 | 81 | 1002.1 |
| 20260505004003 | 25 | 219 | 0.0 | 0.0 | 0.00 | 0.00 | 0.00 | 81 | 1002.1 |
| 20260505003902 | 25 | 219 | 0.0 | 0.0 | 0.00 | 0.00 | 0.00 | 81 | 1002.1 |
| 20260505003804 | 25 | 202 | 0.0 | 0.0 | 0.00 | 0.00 | 0.00 | 81 | 1002.0 |
| 20260505003702 | 25 | 200 | 0.0 | 0.0 | 0.00 | 0.00 | 0.00 | 81 | 1002.1 |
| 20260505003602 | 25 | 188 | 0.0 | 0.0 | 0.00 | 0.00 | 0.00 | 81 | 1002.0 |
| 20260505003504 | 25 | 188 | 0.0 | 0.0 | 0.00 | 0.00 | 0.00 | 81 | 1002.1 |
| 20260505003402 | 25 | 188 | 0.0 | 0.0 | 0.00 | 0.00 | 0.00 | 81 | 1002.1 |